Time,TemperatureF,DewpointF,PressureIn,WindDirection,WindDirectionDegrees,WindSpeedMPH,WindSpeedGustMPH,Humidity,HourlyPrecipIn,Conditions,Clouds,dailyrainin,SoftwareType,DateUTC
2013-04-17 00:02:00,44.2,37.1,30.27,East,101,4.0,4.0,76,0.00,,,0.00,Wunderground v.1.15,2013-04-17 05:02:00,
2013-04-17 00:03:00,44.2,37.1,30.27,ENE,65,3.0,5.0,76,0.00,,,0.00,Wunderground v.1.15,2013-04-17 05:03:00,
2013-04-17 00:05:00,44.2,37.1,30.27,ENE,77,3.0,5.0,76,0.00,,,0.00,Wunderground v.1.15,2013-04-17 05:05:00,
2013-04-17 00:06:00,44.2,37.1,30.26,ENE,76,4.0,5.0,76,0.00,,,0.00,Wunderground v.1.15,2013-04-17 05:06:00,
2013-04-17 00:08:00,44.1,37.0,30.26,East,93,4.0,5.0,76,0.00,,,0.00,Wunderground v.1.15,2013-04-17 05:08:00,
2013-04-17 00:09:00,44.1,37.0,30.26,East,85,4.0,5.0,76,0.00,,,0.00,Wunderground v.1.15,2013-04-17 05:09:00,
2013-04-17 00:10:00,44.1,37.0,30.26,East,97,4.0,4.0,76,0.00,,,0.00,Wunderground v.1.15,2013-04-17 05:10:00,
2013-04-17 00:14:00,44.0,36.9,30.26,ESE,106,4.0,6.0,76,0.00,,,0.00,Wunderground v.1.15,2013-04-17 05:14:00,
2013-04-17 00:15:00,44.0,36.9,30.27,ESE,103,4.0,6.0,76,0.00,,,0.00,Wunderground v.1.15,2013-04-17 05:15:00,
2013-04-17 00:16:00,44.0,36.9,30.26,ESE,103,4.0,6.0,76,0.00,,,0.00,Wunderground v.1.15,2013-04-17 05:16:00,
2013-04-17 00:17:00,44.0,36.9,30.26,East,79,4.0,6.0,76,0.00,,,0.00,Wunderground v.1.15,2013-04-17 05:17:00,
2013-04-17 00:20:00,43.9,37.2,30.27,East,98,4.0,6.0,77,0.00,,,0.00,Wunderground v.1.15,2013-04-17 05:20:00,
2013-04-17 00:22:00,43.9,36.8,30.27,East,99,4.0,7.0,76,0.00,,,0.00,Wunderground v.1.15,2013-04-17 05:22:00,
2013-04-17 00:24:00,43.8,36.7,30.27,ESE,104,4.0,7.0,76,0.00,,,0.00,Wunderground v.1.15,2013-04-17 05:24:00,
2013-04-17 00:25:00,43.8,36.7,30.27,ESE,104,4.0,7.0,76,0.00,,,0.00,Wunderground v.1.15,2013-04-17 05:25:00,
2013-04-17 00:27:00,43.8,36.7,30.27,ESE,103,4.0,7.0,76,0.00,,,0.00,Wunderground v.1.15,2013-04-17 05:27:00,
2013-04-17 00:29:00,43.8,36.7,30.27,ENE,70,4.0,7.0,76,0.00,,,0.00,Wunderground v.1.15,2013-04-17 05:29:00,
2013-04-17 00:30:00,43.8,36.7,30.27,ESE,103,5.0,5.0,76,0.00,,,0.00,Wunderground v.1.15,2013-04-17 05:30:00,
2013-04-17 00:32:00,43.8,36.7,30.27,ESE,102,4.0,5.0,76,0.00,,,0.00,Wunderground v.1.15,2013-04-17 05:32:00,
2013-04-17 00:36:00,43.8,36.7,30.27,East,94,4.0,6.0,76,0.00,,,0.00,Wunderground v.1.15,2013-04-17 05:36:00,
2013-04-17 00:38:00,43.7,36.6,30.27,ENE,65,4.0,6.0,76,0.00,,,0.00,Wunderground v.1.15,2013-04-17 05:38:00,
2013-04-17 00:39:00,43.7,36.6,30.27,East,82,4.0,6.0,76,0.00,,,0.00,Wunderground v.1.15,2013-04-17 05:39:00,
2013-04-17 00:41:00,43.7,36.6,30.27,ENE,69,4.0,7.0,76,0.00,,,0.00,Wunderground v.1.15,2013-04-17 05:41:00,
2013-04-17 00:42:00,43.7,36.6,30.27,ENE,74,4.0,7.0,76,0.00,,,0.00,Wunderground v.1.15,2013-04-17 05:42:00,
2013-04-17 00:43:00,43.7,36.6,30.27,ENE,63,4.0,7.0,76,0.00,,,0.00,Wunderground v.1.15,2013-04-17 05:43:00,
2013-04-17 00:45:00,43.7,36.6,30.28,East,98,5.0,7.0,76,0.00,,,0.00,Wunderground v.1.15,2013-04-17 05:45:00,
2013-04-17 00:46:00,43.7,36.6,30.28,East,98,4.0,7.0,76,0.00,,,0.00,Wunderground v.1.15,2013-04-17 05:46:00,
2013-04-17 00:47:00,43.7,36.6,30.28,East,92,4.0,7.0,76,0.00,,,0.00,Wunderground v.1.15,2013-04-17 05:47:00,
2013-04-17 00:53:00,43.6,36.5,30.27,East,92,2.0,3.0,76,0.00,,,0.00,Wunderground v.1.15,2013-04-17 05:53:00,
2013-04-17 00:54:00,43.6,36.5,30.27,East,85,2.0,4.0,76,0.00,,,0.00,Wunderground v.1.15,2013-04-17 05:54:00,
2013-04-17 00:55:00,43.6,36.5,30.27,East,95,3.0,4.0,76,0.00,,,0.00,Wunderground v.1.15,2013-04-17 05:55:00,
2013-04-17 00:59:00,43.6,36.5,30.27,East,101,3.0,6.0,76,0.00,,,0.00,Wunderground v.1.15,2013-04-17 05:59:00,
2013-04-17 01:00:00,43.6,36.5,30.27,East,85,3.0,3.0,76,0.00,,,0.00,Wunderground v.1.15,2013-04-17 06:00:00,
2013-04-17 01:01:00,43.6,36.5,30.27,ENE,57,4.0,4.0,76,0.00,,,0.00,Wunderground v.1.15,2013-04-17 06:01:00,
2013-04-17 01:05:00,43.5,36.4,30.27,ENE,64,3.0,4.0,76,0.00,,,0.00,Wunderground v.1.15,2013-04-17 06:05:00,
2013-04-17 01:06:00,43.5,36.4,30.27,East,92,3.0,4.0,76,0.00,,,0.00,Wunderground v.1.15,2013-04-17 06:06:00,
2013-04-17 01:07:00,43.5,36.4,30.27,East,93,3.0,4.0,76,0.00,,,0.00,Wunderground v.1.15,2013-04-17 06:07:00,
2013-04-17 01:08:00,43.5,36.4,30.27,East,92,3.0,4.0,76,0.00,,,0.00,Wunderground v.1.15,2013-04-17 06:08:00,
2013-04-17 01:11:00,43.5,36.4,30.27,ENE,72,3.0,4.0,76,0.00,,,0.00,Wunderground v.1.15,2013-04-17 06:11:00,
2013-04-17 01:12:00,43.5,36.4,30.27,East,82,3.0,4.0,76,0.00,,,0.00,Wunderground v.1.15,2013-04-17 06:12:00,
2013-04-17 01:15:00,43.4,36.0,30.28,ENE,70,4.0,8.0,75,0.00,,,0.00,Wunderground v.1.15,2013-04-17 06:15:00,
2013-04-17 01:17:00,43.4,36.0,30.27,East,87,4.0,8.0,75,0.00,,,0.00,Wunderground v.1.15,2013-04-17 06:17:00,
2013-04-17 01:20:00,43.4,36.0,30.27,ENE,67,4.0,6.0,75,0.00,,,0.00,Wunderground v.1.15,2013-04-17 06:20:00,
2013-04-17 01:21:00,43.4,36.0,30.27,ENE,72,5.0,6.0,75,0.00,,,0.00,Wunderground v.1.15,2013-04-17 06:21:00,
2013-04-17 01:23:00,43.4,36.0,30.27,East,87,5.0,10.0,75,0.00,,,0.00,Wunderground v.1.15,2013-04-17 06:23:00,
2013-04-17 01:27:00,43.4,35.7,30.27,ESE,112,5.0,12.0,74,0.00,,,0.00,Wunderground v.1.15,2013-04-17 06:27:00,
2013-04-17 01:28:00,43.4,35.7,30.27,ENE,75,5.0,12.0,74,0.00,,,0.00,Wunderground v.1.15,2013-04-17 06:28:00,
2013-04-17 01:30:00,43.4,35.7,30.27,ENE,69,5.0,6.0,74,0.00,,,0.00,Wunderground v.1.15,2013-04-17 06:30:00,
2013-04-17 01:32:00,43.4,35.7,30.27,ENE,75,5.0,6.0,74,0.00,,,0.00,Wunderground v.1.15,2013-04-17 06:32:00,
2013-04-17 01:34:00,43.4,35.7,30.27,ENE,78,5.0,6.0,74,0.00,,,0.00,Wunderground v.1.15,2013-04-17 06:34:00,
2013-04-17 01:36:00,43.3,35.2,30.27,East,87,6.0,6.0,73,0.00,,,0.00,Wunderground v.1.15,2013-04-17 06:36:00,
2013-04-17 01:37:00,43.3,35.2,30.27,ENE,77,5.0,6.0,73,0.00,,,0.00,Wunderground v.1.15,2013-04-17 06:37:00,
2013-04-17 01:40:00,43.3,35.2,30.27,ENE,77,6.0,6.0,73,0.00,,,0.00,Wunderground v.1.15,2013-04-17 06:40:00,
2013-04-17 01:42:00,43.3,35.6,30.27,ENE,78,6.0,9.0,74,0.00,,,0.00,Wunderground v.1.15,2013-04-17 06:42:00,
2013-04-17 01:43:00,43.3,35.6,30.27,NE,42,6.0,9.0,74,0.00,,,0.00,Wunderground v.1.15,2013-04-17 06:43:00,
2013-04-17 01:44:00,43.3,35.6,30.27,ENE,74,6.0,9.0,74,0.00,,,0.00,Wunderground v.1.15,2013-04-17 06:44:00,
2013-04-17 01:46:00,43.3,35.6,30.26,East,96,6.0,9.0,74,0.00,,,0.00,Wunderground v.1.15,2013-04-17 06:46:00,
2013-04-17 01:48:00,43.3,35.6,30.27,East,96,5.0,9.0,74,0.00,,,0.00,Wunderground v.1.15,2013-04-17 06:48:00,
2013-04-17 01:49:00,43.3,35.9,30.27,East,82,4.0,9.0,75,0.00,,,0.00,Wunderground v.1.15,2013-04-17 06:49:00,
2013-04-17 01:51:00,43.3,35.9,30.27,East,82,4.0,4.0,75,0.00,,,0.00,Wunderground v.1.15,2013-04-17 06:51:00,
2013-04-17 01:53:00,43.3,35.9,30.27,East,79,3.0,4.0,75,0.00,,,0.00,Wunderground v.1.15,2013-04-17 06:53:00,
2013-04-17 01:54:00,43.3,35.9,30.27,ENE,77,3.0,4.0,75,0.00,,,0.00,Wunderground v.1.15,2013-04-17 06:54:00,
2013-04-17 01:55:00,43.3,35.9,30.27,ESE,114,3.0,4.0,75,0.00,,,0.00,Wunderground v.1.15,2013-04-17 06:55:00,
2013-04-17 01:56:00,43.3,35.9,30.27,ESE,114,3.0,4.0,75,0.00,,,0.00,Wunderground v.1.15,2013-04-17 06:56:00,
2013-04-17 02:00:00,43.2,35.8,30.27,East,84,3.0,3.0,75,0.00,,,0.00,Wunderground v.1.15,2013-04-17 07:00:00,
2013-04-17 02:01:00,43.2,35.8,30.27,ENE,69,3.0,6.0,75,0.00,,,0.00,Wunderground v.1.15,2013-04-17 07:01:00,
2013-04-17 02:02:00,43.2,35.8,30.27,East,82,3.0,6.0,75,0.00,,,0.00,Wunderground v.1.15,2013-04-17 07:02:00,
2013-04-17 02:04:00,43.2,36.1,30.27,NE,54,3.0,6.0,76,0.00,,,0.00,Wunderground v.1.15,2013-04-17 07:04:00,
2013-04-17 02:07:00,43.2,35.8,30.27,East,80,4.0,6.0,75,0.00,,,0.00,Wunderground v.1.15,2013-04-17 07:07:00,
2013-04-17 02:08:00,43.1,35.7,30.26,East,84,4.0,6.0,75,0.00,,,0.00,Wunderground v.1.15,2013-04-17 07:08:00,
2013-04-17 02:09:00,43.1,35.7,30.26,ENE,78,4.0,6.0,75,0.00,,,0.00,Wunderground v.1.15,2013-04-17 07:09:00,
2013-04-17 02:10:00,43.2,35.8,30.26,ENE,69,4.0,4.0,75,0.00,,,0.00,Wunderground v.1.15,2013-04-17 07:10:00,
2013-04-17 02:14:00,43.2,36.1,30.27,East,90,4.0,4.0,76,0.00,,,0.00,Wunderground v.1.15,2013-04-17 07:14:00,
2013-04-17 02:16:00,43.1,35.7,30.27,East,97,4.0,6.0,75,0.00,,,0.00,Wunderground v.1.15,2013-04-17 07:16:00,
2013-04-17 02:18:00,43.1,35.7,30.27,ENE,69,4.0,7.0,75,0.00,,,0.00,Wunderground v.1.15,2013-04-17 07:18:00,
2013-04-17 02:20:00,43.1,35.7,30.27,ENE,78,4.0,4.0,75,0.00,,,0.00,Wunderground v.1.15,2013-04-17 07:20:00,
2013-04-17 02:22:00,43.1,35.7,30.27,ENE,74,4.0,12.0,75,0.00,,,0.00,Wunderground v.1.15,2013-04-17 07:22:00,
2013-04-17 02:24:00,43.0,35.3,30.27,East,82,5.0,12.0,74,0.00,,,0.00,Wunderground v.1.15,2013-04-17 07:24:00,
2013-04-17 02:25:00,43.0,35.3,30.27,ENE,76,5.0,12.0,74,0.00,,,0.00,Wunderground v.1.15,2013-04-17 07:25:00,
2013-04-17 02:26:00,43.1,35.4,30.27,ENE,60,5.0,12.0,74,0.00,,,0.00,Wunderground v.1.15,2013-04-17 07:26:00,
2013-04-17 02:28:00,43.0,35.3,30.28,ENE,63,5.0,12.0,74,0.00,,,0.00,Wunderground v.1.15,2013-04-17 07:28:00,
2013-04-17 02:29:00,43.0,35.3,30.27,ENE,65,5.0,12.0,74,0.00,,,0.00,Wunderground v.1.15,2013-04-17 07:29:00,
2013-04-17 02:30:00,43.0,35.3,30.27,East,99,5.0,8.0,74,0.00,,,0.00,Wunderground v.1.15,2013-04-17 07:30:00,
2013-04-17 02:34:00,43.0,35.3,30.26,East,100,5.0,10.0,74,0.00,,,0.00,Wunderground v.1.15,2013-04-17 07:34:00,
2013-04-17 02:35:00,43.0,35.3,30.27,North,11,5.0,10.0,74,0.00,,,0.00,Wunderground v.1.15,2013-04-17 07:35:00,
2013-04-17 02:37:00,43.0,35.3,30.26,NE,46,5.0,10.0,74,0.00,,,0.00,Wunderground v.1.15,2013-04-17 07:37:00,
2013-04-17 02:42:00,42.9,35.5,30.26,ESE,105,4.0,5.0,75,0.00,,,0.00,Wunderground v.1.15,2013-04-17 07:42:00,
2013-04-17 02:43:00,42.9,35.5,30.26,ENE,71,4.0,5.0,75,0.00,,,0.00,Wunderground v.1.15,2013-04-17 07:43:00,
2013-04-17 02:44:00,42.9,35.5,30.26,East,83,4.0,5.0,75,0.00,,,0.00,Wunderground v.1.15,2013-04-17 07:44:00,
2013-04-17 02:45:00,42.9,35.5,30.25,East,79,4.0,11.0,75,0.00,,,0.00,Wunderground v.1.15,2013-04-17 07:45:00,
2013-04-17 02:48:00,42.9,35.2,30.26,ENE,70,5.0,11.0,74,0.00,,,0.00,Wunderground v.1.15,2013-04-17 07:48:00,
2013-04-17 02:51:00,42.9,35.2,30.26,East,84,5.0,6.0,74,0.00,,,0.00,Wunderground v.1.15,2013-04-17 07:51:00,
2013-04-17 02:53:00,42.9,35.5,30.26,East,94,5.0,6.0,75,0.00,,,0.00,Wunderground v.1.15,2013-04-17 07:53:00,
2013-04-17 02:54:00,42.9,35.5,30.26,NE,54,5.0,9.0,75,0.00,,,0.00,Wunderground v.1.15,2013-04-17 07:54:00,
2013-04-17 02:55:00,42.8,35.4,30.26,East,98,5.0,9.0,75,0.00,,,0.00,Wunderground v.1.15,2013-04-17 07:55:00,
2013-04-17 02:57:00,42.8,35.4,30.26,East,80,5.0,9.0,75,0.00,,,0.00,Wunderground v.1.15,2013-04-17 07:57:00,
2013-04-17 03:00:00,42.8,35.4,30.26,East,90,4.0,5.0,75,0.00,,,0.00,Wunderground v.1.15,2013-04-17 08:00:00,
2013-04-17 03:02:00,42.8,35.4,30.26,ENE,67,4.0,6.0,75,0.00,,,0.00,Wunderground v.1.15,2013-04-17 08:02:00,
2013-04-17 03:03:00,42.7,35.3,30.26,East,80,4.0,6.0,75,0.00,,,0.00,Wunderground v.1.15,2013-04-17 08:03:00,
2013-04-17 03:04:00,42.7,35.3,30.26,ENE,74,5.0,6.0,75,0.00,,,0.00,Wunderground v.1.15,2013-04-17 08:04:00,
2013-04-17 03:07:00,42.7,35.3,30.26,East,82,4.0,6.0,75,0.00,,,0.00,Wunderground v.1.15,2013-04-17 08:07:00,
2013-04-17 03:10:00,42.8,35.4,30.25,East,85,4.0,5.0,75,0.00,,,0.00,Wunderground v.1.15,2013-04-17 08:10:00,
2013-04-17 03:12:00,42.7,35.3,30.25,East,96,4.0,5.0,75,0.00,,,0.00,Wunderground v.1.15,2013-04-17 08:12:00,
2013-04-17 03:13:00,42.7,35.3,30.25,ENE,77,3.0,5.0,75,0.00,,,0.00,Wunderground v.1.15,2013-04-17 08:13:00,
2013-04-17 03:16:00,42.7,35.3,30.25,ENE,69,3.0,5.0,75,0.00,,,0.00,Wunderground v.1.15,2013-04-17 08:16:00,
2013-04-17 03:17:00,42.8,35.4,30.25,ENE,69,3.0,5.0,75,0.00,,,0.00,Wunderground v.1.15,2013-04-17 08:17:00,
2013-04-17 03:18:00,42.8,35.4,30.25,East,97,3.0,6.0,75,0.00,,,0.00,Wunderground v.1.15,2013-04-17 08:18:00,
2013-04-17 03:19:00,42.8,35.4,30.25,East,92,4.0,6.0,75,0.00,,,0.00,Wunderground v.1.15,2013-04-17 08:19:00,
2013-04-17 03:22:00,42.7,35.3,30.25,NE,43,4.0,6.0,75,0.00,,,0.00,Wunderground v.1.15,2013-04-17 08:22:00,
2013-04-17 03:23:00,42.8,35.4,30.25,ENE,75,4.0,6.0,75,0.00,,,0.00,Wunderground v.1.15,2013-04-17 08:23:00,
2013-04-17 03:24:00,42.8,35.4,30.25,ENE,78,4.0,6.0,75,0.00,,,0.00,Wunderground v.1.15,2013-04-17 08:24:00,
2013-04-17 03:28:00,42.8,35.4,30.24,NE,45,5.0,6.0,75,0.00,,,0.00,Wunderground v.1.15,2013-04-17 08:28:00,
2013-04-17 03:29:00,42.8,35.4,30.24,ENE,61,5.0,6.0,75,0.00,,,0.00,Wunderground v.1.15,2013-04-17 08:29:00,
2013-04-17 03:31:00,42.8,35.1,30.25,ENE,78,5.0,7.0,74,0.00,,,0.00,Wunderground v.1.15,2013-04-17 08:31:00,
2013-04-17 03:33:00,42.8,35.1,30.25,ESE,103,5.0,7.0,74,0.00,,,0.00,Wunderground v.1.15,2013-04-17 08:33:00,
2013-04-17 03:36:00,42.8,35.1,30.25,East,80,5.0,7.0,74,0.00,,,0.00,Wunderground v.1.15,2013-04-17 08:36:00,
2013-04-17 03:37:00,42.8,35.1,30.25,East,79,5.0,7.0,74,0.00,,,0.00,Wunderground v.1.15,2013-04-17 08:37:00,
2013-04-17 03:40:00,42.8,35.1,30.24,East,82,5.0,5.0,74,0.00,,,0.00,Wunderground v.1.15,2013-04-17 08:40:00,
2013-04-17 03:42:00,42.8,34.7,30.24,NE,46,5.0,5.0,73,0.00,,,0.00,Wunderground v.1.15,2013-04-17 08:42:00,
2013-04-17 03:43:00,42.9,35.2,30.24,NE,49,5.0,5.0,74,0.00,,,0.00,Wunderground v.1.15,2013-04-17 08:43:00,
2013-04-17 03:44:00,42.9,35.2,30.24,East,82,5.0,7.0,74,0.00,,,0.00,Wunderground v.1.15,2013-04-17 08:44:00,
2013-04-17 03:47:00,42.9,34.8,30.23,ENE,77,5.0,7.0,73,0.00,,,0.00,Wunderground v.1.15,2013-04-17 08:47:00,
2013-04-17 03:50:00,42.9,34.5,30.23,ESE,105,6.0,6.0,72,0.00,,,0.00,Wunderground v.1.15,2013-04-17 08:50:00,
2013-04-17 03:52:00,42.9,34.8,30.24,ENE,77,6.0,6.0,73,0.00,,,0.00,Wunderground v.1.15,2013-04-17 08:52:00,
2013-04-17 03:53:00,42.9,34.5,30.24,ESE,103,7.0,7.0,72,0.00,,,0.00,Wunderground v.1.15,2013-04-17 08:53:00,
2013-04-17 03:54:00,42.9,34.8,30.24,East,90,6.0,7.0,73,0.00,,,0.00,Wunderground v.1.15,2013-04-17 08:54:00,
2013-04-17 03:55:00,42.9,34.8,30.24,ENE,75,6.0,7.0,73,0.00,,,0.00,Wunderground v.1.15,2013-04-17 08:55:00,
2013-04-17 03:58:00,42.9,34.8,30.22,East,85,6.0,7.0,73,0.00,,,0.00,Wunderground v.1.15,2013-04-17 08:58:00,
2013-04-17 03:59:00,42.8,34.7,30.22,East,86,6.0,11.0,73,0.00,,,0.00,Wunderground v.1.15,2013-04-17 08:59:00,
2013-04-17 04:00:00,42.9,34.8,30.22,ENE,71,5.0,5.0,73,0.00,,,0.00,Wunderground v.1.15,2013-04-17 09:00:00,
2013-04-17 04:02:00,42.8,34.7,30.24,ENE,67,5.0,5.0,73,0.00,,,0.00,Wunderground v.1.15,2013-04-17 09:02:00,
2013-04-17 04:05:00,42.8,34.7,30.25,East,97,4.0,5.0,73,0.00,,,0.00,Wunderground v.1.15,2013-04-17 09:05:00,
2013-04-17 04:06:00,42.8,34.7,30.25,East,97,4.0,5.0,73,0.00,,,0.00,Wunderground v.1.15,2013-04-17 09:06:00,
2013-04-17 04:07:00,42.8,34.7,30.25,East,79,4.0,5.0,73,0.00,,,0.00,Wunderground v.1.15,2013-04-17 09:07:00,
2013-04-17 04:08:00,42.8,34.4,30.24,East,84,4.0,10.0,72,0.00,,,0.00,Wunderground v.1.15,2013-04-17 09:08:00,
2013-04-17 04:12:00,42.8,34.4,30.24,NE,52,4.0,4.0,72,0.00,,,0.00,Wunderground v.1.15,2013-04-17 09:12:00,
2013-04-17 04:13:00,42.8,34.7,30.24,ENE,68,4.0,4.0,73,0.00,,,0.00,Wunderground v.1.15,2013-04-17 09:13:00,
2013-04-17 04:14:00,42.9,34.8,30.23,East,80,4.0,4.0,73,0.00,,,0.00,Wunderground v.1.15,2013-04-17 09:14:00,
2013-04-17 04:16:00,42.9,34.8,30.22,ENE,68,5.0,5.0,73,0.00,,,0.00,Wunderground v.1.15,2013-04-17 09:16:00,
2013-04-17 04:19:00,42.8,34.4,30.21,ESE,103,5.0,10.0,72,0.00,,,0.00,Wunderground v.1.15,2013-04-17 09:19:00,
2013-04-17 04:20:00,42.8,34.4,30.21,East,85,5.0,6.0,72,0.00,,,0.00,Wunderground v.1.15,2013-04-17 09:20:00,
2013-04-17 04:21:00,42.8,34.4,30.21,East,80,6.0,6.0,72,0.00,,,0.00,Wunderground v.1.15,2013-04-17 09:21:00,
2013-04-17 04:22:00,42.9,34.5,30.21,East,91,6.0,7.0,72,0.00,,,0.00,Wunderground v.1.15,2013-04-17 09:22:00,
2013-04-17 04:25:00,42.8,34.4,30.21,ENE,74,6.0,7.0,72,0.00,,,0.00,Wunderground v.1.15,2013-04-17 09:25:00,
2013-04-17 04:28:00,42.8,34.4,30.21,NE,40,5.0,9.0,72,0.00,,,0.00,Wunderground v.1.15,2013-04-17 09:28:00,
2013-04-17 04:29:00,42.7,34.3,30.21,SE,135,5.0,9.0,72,0.00,,,0.00,Wunderground v.1.15,2013-04-17 09:29:00,
2013-04-17 04:30:00,42.7,34.3,30.21,ENE,67,5.0,7.0,72,0.00,,,0.00,Wunderground v.1.15,2013-04-17 09:30:00,
2013-04-17 04:32:00,42.7,34.3,30.21,East,84,5.0,7.0,72,0.00,,,0.00,Wunderground v.1.15,2013-04-17 09:32:00,
2013-04-17 04:34:00,42.7,34.3,30.21,ENE,69,5.0,7.0,72,0.00,,,0.00,Wunderground v.1.15,2013-04-17 09:34:00,
2013-04-17 04:39:00,42.5,34.1,30.22,East,91,5.0,9.0,72,0.00,,,0.00,Wunderground v.1.15,2013-04-17 09:39:00,
2013-04-17 04:40:00,42.5,34.5,30.22,ENE,78,4.0,4.0,73,0.00,,,0.00,Wunderground v.1.15,2013-04-17 09:40:00,
2013-04-17 04:41:00,42.5,34.5,30.22,ENE,77,4.0,4.0,73,0.00,,,0.00,Wunderground v.1.15,2013-04-17 09:41:00,
2013-04-17 04:46:00,42.4,34.4,30.21,East,96,5.0,10.0,73,0.00,,,0.00,Wunderground v.1.15,2013-04-17 09:46:00,
2013-04-17 04:48:00,42.4,34.4,30.21,NE,36,5.0,10.0,73,0.00,,,0.00,Wunderground v.1.15,2013-04-17 09:48:00,
2013-04-17 04:49:00,42.4,34.4,30.22,ENE,71,5.0,10.0,73,0.00,,,0.00,Wunderground v.1.15,2013-04-17 09:49:00,
2013-04-17 04:50:00,42.4,34.0,30.22,ENE,57,5.0,5.0,72,0.00,,,0.00,Wunderground v.1.15,2013-04-17 09:50:00,
2013-04-17 04:51:00,42.4,34.4,30.21,East,100,5.0,7.0,73,0.00,,,0.00,Wunderground v.1.15,2013-04-17 09:51:00,
2013-04-17 04:55:00,42.5,34.5,30.21,East,96,6.0,7.0,73,0.00,,,0.00,Wunderground v.1.15,2013-04-17 09:55:00,
2013-04-17 04:56:00,42.5,34.5,30.21,ENE,71,6.0,7.0,73,0.00,,,0.00,Wunderground v.1.15,2013-04-17 09:56:00,
2013-04-17 04:57:00,42.5,34.5,30.20,East,83,6.0,7.0,73,0.00,,,0.00,Wunderground v.1.15,2013-04-17 09:57:00,
2013-04-17 05:01:00,42.5,34.5,30.20,ENE,76,5.0,7.0,73,0.00,,,0.00,Wunderground v.1.15,2013-04-17 10:01:00,
2013-04-17 05:02:00,42.5,34.5,30.20,NE,36,6.0,10.0,73,0.00,,,0.00,Wunderground v.1.15,2013-04-17 10:02:00,
2013-04-17 05:04:00,42.5,34.1,30.20,ENE,68,6.0,10.0,72,0.00,,,0.00,Wunderground v.1.15,2013-04-17 10:04:00,
2013-04-17 05:07:00,42.5,34.5,30.19,East,91,6.0,10.0,73,0.00,,,0.00,Wunderground v.1.15,2013-04-17 10:07:00,
2013-04-17 05:08:00,42.5,34.5,30.19,ENE,76,6.0,10.0,73,0.00,,,0.00,Wunderground v.1.15,2013-04-17 10:08:00,
2013-04-17 05:09:00,42.5,34.5,30.19,ESE,110,6.0,10.0,73,0.00,,,0.00,Wunderground v.1.15,2013-04-17 10:09:00,
2013-04-17 05:10:00,42.5,34.5,30.19,ENE,74,6.0,6.0,73,0.00,,,0.00,Wunderground v.1.15,2013-04-17 10:10:00,
2013-04-17 05:13:00,42.4,34.4,30.20,ESE,102,6.0,8.0,73,0.00,,,0.00,Wunderground v.1.15,2013-04-17 10:13:00,
2013-04-17 05:15:00,42.4,34.4,30.20,ESE,120,6.0,9.0,73,0.00,,,0.00,Wunderground v.1.15,2013-04-17 10:15:00,
2013-04-17 05:17:00,42.4,34.4,30.20,East,85,6.0,9.0,73,0.00,,,0.00,Wunderground v.1.15,2013-04-17 10:17:00,
2013-04-17 05:18:00,42.4,34.4,30.20,ESE,117,6.0,11.0,73,0.00,,,0.00,Wunderground v.1.15,2013-04-17 10:18:00,
2013-04-17 05:20:00,42.3,34.3,30.19,ENE,76,6.0,9.0,73,0.00,,,0.00,Wunderground v.1.15,2013-04-17 10:20:00,
2013-04-17 05:22:00,42.3,34.3,30.19,ENE,65,6.0,11.0,73,0.00,,,0.00,Wunderground v.1.15,2013-04-17 10:22:00,
2013-04-17 05:24:00,42.3,34.3,30.20,East,93,6.0,11.0,73,0.00,,,0.00,Wunderground v.1.15,2013-04-17 10:24:00,
2013-04-17 05:27:00,42.3,34.3,30.20,East,90,6.0,11.0,73,0.00,,,0.00,Wunderground v.1.15,2013-04-17 10:27:00,
2013-04-17 05:29:00,42.2,34.2,30.20,ENE,75,5.0,13.0,73,0.00,,,0.00,Wunderground v.1.15,2013-04-17 10:29:00,
2013-04-17 05:31:00,42.3,34.3,30.20,ENE,69,5.0,10.0,73,0.00,,,0.00,Wunderground v.1.15,2013-04-17 10:31:00,
2013-04-17 05:34:00,42.3,34.3,30.21,ENE,78,5.0,10.0,73,0.00,,,0.00,Wunderground v.1.15,2013-04-17 10:34:00,
2013-04-17 05:35:00,42.3,34.3,30.21,East,94,5.0,10.0,73,0.00,,,0.00,Wunderground v.1.15,2013-04-17 10:35:00,
2013-04-17 05:37:00,42.3,34.3,30.21,East,94,5.0,10.0,73,0.00,,,0.00,Wunderground v.1.15,2013-04-17 10:37:00,
2013-04-17 05:39:00,42.3,34.3,30.21,East,91,4.0,10.0,73,0.00,,,0.00,Wunderground v.1.15,2013-04-17 10:39:00,
2013-04-17 05:40:00,42.4,34.4,30.21,ENE,70,4.0,11.0,73,0.00,,,0.00,Wunderground v.1.15,2013-04-17 10:40:00,
2013-04-17 05:41:00,42.4,34.4,30.21,ENE,70,5.0,11.0,73,0.00,,,0.00,Wunderground v.1.15,2013-04-17 10:41:00,
2013-04-17 05:43:00,42.4,34.0,30.20,ESE,102,5.0,11.0,72,0.00,,,0.00,Wunderground v.1.15,2013-04-17 10:43:00,
2013-04-17 05:44:00,42.4,34.0,30.21,East,84,5.0,11.0,72,0.00,,,0.00,Wunderground v.1.15,2013-04-17 10:44:00,
2013-04-17 05:46:00,42.4,34.0,30.21,ENE,67,6.0,11.0,72,0.00,,,0.00,Wunderground v.1.15,2013-04-17 10:46:00,
2013-04-17 05:49:00,42.4,34.0,30.21,ENE,58,6.0,11.0,72,0.00,,,0.00,Wunderground v.1.15,2013-04-17 10:49:00,
2013-04-17 05:50:00,42.5,34.1,30.21,ENE,57,6.0,6.0,72,0.00,,,0.00,Wunderground v.1.15,2013-04-17 10:50:00,
2013-04-17 05:51:00,42.5,34.1,30.20,East,82,5.0,6.0,72,0.00,,,0.00,Wunderground v.1.15,2013-04-17 10:51:00,
2013-04-17 05:55:00,42.5,34.1,30.20,East,94,6.0,10.0,72,0.00,,,0.00,Wunderground v.1.15,2013-04-17 10:55:00,
2013-04-17 05:58:00,42.5,34.1,30.20,ENE,78,6.0,10.0,72,0.00,,,0.00,Wunderground v.1.15,2013-04-17 10:58:00,
2013-04-17 05:59:00,42.5,34.1,30.20,East,99,6.0,10.0,72,0.00,,,0.00,Wunderground v.1.15,2013-04-17 10:59:00,
2013-04-17 06:00:00,42.5,34.5,30.20,ENE,77,5.0,5.0,73,0.00,,,0.00,Wunderground v.1.15,2013-04-17 11:00:00,
2013-04-17 06:02:00,42.5,34.1,30.20,East,90,6.0,7.0,72,0.00,,,0.00,Wunderground v.1.15,2013-04-17 11:02:00,
2013-04-17 06:05:00,42.5,34.5,30.20,ENE,77,5.0,10.0,73,0.00,,,0.00,Wunderground v.1.15,2013-04-17 11:05:00,
2013-04-17 06:06:00,42.5,34.5,30.19,ENE,77,5.0,12.0,73,0.00,,,0.00,Wunderground v.1.15,2013-04-17 11:06:00,
2013-04-17 06:07:00,42.5,34.5,30.19,East,87,6.0,12.0,73,0.00,,,0.00,Wunderground v.1.15,2013-04-17 11:07:00,
2013-04-17 06:08:00,42.5,34.5,30.20,NE,55,6.0,12.0,73,0.00,,,0.00,Wunderground v.1.15,2013-04-17 11:08:00,
2013-04-17 06:11:00,42.5,34.5,30.20,ENE,74,6.0,6.0,73,0.00,,,0.00,Wunderground v.1.15,2013-04-17 11:11:00,
2013-04-17 06:13:00,42.6,34.5,30.20,ENE,76,5.0,6.0,73,0.00,,,0.00,Wunderground v.1.15,2013-04-17 11:13:00,
2013-04-17 06:14:00,42.6,34.5,30.20,ENE,78,5.0,11.0,73,0.00,,,0.00,Wunderground v.1.15,2013-04-17 11:14:00,
2013-04-17 06:15:00,42.6,34.5,30.20,ENE,61,6.0,11.0,73,0.00,,,0.00,Wunderground v.1.15,2013-04-17 11:15:00,
2013-04-17 06:17:00,42.6,34.5,30.21,ENE,77,5.0,11.0,73,0.00,,,0.00,Wunderground v.1.15,2013-04-17 11:17:00,
2013-04-17 06:19:00,42.6,34.5,30.22,East,81,5.0,11.0,73,0.00,,,0.00,Wunderground v.1.15,2013-04-17 11:19:00,
2013-04-17 06:22:00,42.7,34.6,30.23,East,89,5.0,6.0,73,0.00,,,0.00,Wunderground v.1.15,2013-04-17 11:22:00,
2013-04-17 06:23:00,42.7,34.6,30.24,East,85,5.0,6.0,73,0.00,,,0.00,Wunderground v.1.15,2013-04-17 11:23:00,
2013-04-17 06:26:00,42.7,34.6,30.23,East,82,4.0,7.0,73,0.00,,,0.00,Wunderground v.1.15,2013-04-17 11:26:00,
2013-04-17 06:27:00,42.7,34.6,30.23,East,80,4.0,7.0,73,0.00,,,0.00,Wunderground v.1.15,2013-04-17 11:27:00,
2013-04-17 06:28:00,42.7,34.6,30.24,East,80,4.0,7.0,73,0.00,,,0.00,Wunderground v.1.15,2013-04-17 11:28:00,
2013-04-17 06:30:00,42.7,34.6,30.24,NE,43,4.0,7.0,73,0.00,,,0.00,Wunderground v.1.15,2013-04-17 11:30:00,
2013-04-17 06:32:00,42.8,34.7,30.24,ENE,69,4.0,7.0,73,0.00,,,0.00,Wunderground v.1.15,2013-04-17 11:32:00,
2013-04-17 06:35:00,42.7,35.3,30.24,ENE,64,4.0,7.0,75,0.00,,,0.00,Wunderground v.1.15,2013-04-17 11:35:00,
2013-04-17 06:37:00,42.7,35.3,30.24,NE,45,4.0,8.0,75,0.00,,,0.00,Wunderground v.1.15,2013-04-17 11:37:00,
2013-04-17 06:38:00,42.6,35.6,30.24,ENE,57,4.0,8.0,76,0.00,,,0.00,Wunderground v.1.15,2013-04-17 11:38:00,
2013-04-17 06:42:00,42.5,35.1,30.25,NE,42,3.0,4.0,75,0.00,,,0.00,Wunderground v.1.15,2013-04-17 11:42:00,
2013-04-17 06:43:00,42.4,35.4,30.25,NE,44,3.0,4.0,76,0.00,,,0.00,Wunderground v.1.15,2013-04-17 11:43:00,
2013-04-17 06:45:00,42.4,35.4,30.24,East,85,4.0,7.0,76,0.00,,,0.00,Wunderground v.1.15,2013-04-17 11:45:00,
2013-04-17 06:47:00,42.4,35.4,30.25,East,100,4.0,7.0,76,0.00,,,0.00,Wunderground v.1.15,2013-04-17 11:47:00,
2013-04-17 06:52:00,42.3,35.3,30.26,NE,46,3.0,5.0,76,0.00,,,0.01,Wunderground v.1.15,2013-04-17 11:52:00,
2013-04-17 06:53:00,42.2,35.2,30.26,NE,41,3.0,6.0,76,0.00,,,0.01,Wunderground v.1.15,2013-04-17 11:53:00,
2013-04-17 06:54:00,42.2,35.2,30.26,ENE,73,4.0,6.0,76,0.00,,,0.01,Wunderground v.1.15,2013-04-17 11:54:00,
2013-04-17 06:55:00,42.2,35.5,30.26,NE,40,4.0,6.0,77,0.00,,,0.01,Wunderground v.1.15,2013-04-17 11:55:00,
2013-04-17 06:58:00,42.2,35.5,30.25,NE,34,4.0,6.0,77,0.00,,,0.01,Wunderground v.1.15,2013-04-17 11:58:00,
2013-04-17 07:03:00,42.0,35.6,30.20,ENE,58,6.0,6.0,78,0.00,,,0.01,Wunderground v.1.15,2013-04-17 12:03:00,
2013-04-17 07:04:00,42.0,35.6,30.20,East,83,6.0,6.0,78,0.00,,,0.01,Wunderground v.1.15,2013-04-17 12:04:00,
2013-04-17 07:07:00,41.8,35.8,30.21,ESE,106,6.0,6.0,79,0.00,,,0.01,Wunderground v.1.15,2013-04-17 12:07:00,
2013-04-17 07:09:00,41.7,35.7,30.21,East,84,6.0,6.0,79,0.00,,,0.01,Wunderground v.1.15,2013-04-17 12:09:00,
2013-04-17 07:10:00,41.6,35.6,30.21,East,83,6.0,6.0,79,0.00,,,0.01,Wunderground v.1.15,2013-04-17 12:10:00,
2013-04-17 07:11:00,41.6,35.6,30.20,East,82,6.0,6.0,79,0.00,,,0.01,Wunderground v.1.15,2013-04-17 12:11:00,
2013-04-17 07:15:00,41.5,35.8,30.19,ENE,67,5.0,8.0,80,0.00,,,0.02,Wunderground v.1.15,2013-04-17 12:15:00,
2013-04-17 07:16:00,41.5,35.8,30.18,East,98,6.0,9.0,80,0.00,,,0.02,Wunderground v.1.15,2013-04-17 12:16:00,
2013-04-17 07:19:00,41.4,35.7,30.18,ENE,73,6.0,9.0,80,0.00,,,0.02,Wunderground v.1.15,2013-04-17 12:19:00,
2013-04-17 07:20:00,41.3,35.6,30.19,East,84,7.0,7.0,80,0.00,,,0.02,Wunderground v.1.15,2013-04-17 12:20:00,
2013-04-17 07:21:00,41.4,35.7,30.20,East,84,7.0,7.0,80,0.00,,,0.02,Wunderground v.1.15,2013-04-17 12:21:00,
2013-04-17 07:22:00,41.3,35.6,30.21,NE,55,7.0,7.0,80,0.00,,,0.02,Wunderground v.1.15,2013-04-17 12:22:00,
2013-04-17 07:25:00,41.3,35.6,30.25,NNE,22,6.0,7.0,80,0.00,,,0.02,Wunderground v.1.15,2013-04-17 12:25:00,
2013-04-17 07:27:00,41.3,35.6,30.27,NNE,21,5.0,7.0,80,0.00,,,0.02,Wunderground v.1.15,2013-04-17 12:27:00,
2013-04-17 07:28:00,41.3,35.6,30.27,ESE,117,4.0,7.0,80,0.00,,,0.02,Wunderground v.1.15,2013-04-17 12:28:00,
2013-04-17 07:29:00,41.4,35.4,30.27,ESE,117,4.0,7.0,79,0.00,,,0.02,Wunderground v.1.15,2013-04-17 12:29:00,
2013-04-17 07:32:00,41.4,35.4,30.24,East,86,3.0,8.0,79,0.00,,,0.02,Wunderground v.1.15,2013-04-17 12:32:00,
2013-04-17 07:35:00,41.4,35.7,30.21,East,86,4.0,8.0,80,0.00,,,0.02,Wunderground v.1.15,2013-04-17 12:35:00,
2013-04-17 07:36:00,41.4,35.7,30.22,East,86,4.0,8.0,80,0.00,,,0.02,Wunderground v.1.15,2013-04-17 12:36:00,
2013-04-17 07:40:00,41.4,35.7,30.24,East,90,5.0,5.0,80,0.00,,,0.02,Wunderground v.1.15,2013-04-17 12:40:00,
2013-04-17 07:41:00,41.4,36.0,30.23,NE,38,5.0,8.0,81,0.00,,,0.02,Wunderground v.1.15,2013-04-17 12:41:00,
2013-04-17 07:42:00,41.4,36.0,30.21,NE,46,5.0,8.0,81,0.00,,,0.02,Wunderground v.1.15,2013-04-17 12:42:00,
2013-04-17 07:45:00,41.3,35.9,30.21,East,88,5.0,8.0,81,0.00,,,0.03,Wunderground v.1.15,2013-04-17 12:45:00,
2013-04-17 07:46:00,41.3,35.9,30.21,ESE,111,5.0,8.0,81,0.00,,,0.03,Wunderground v.1.15,2013-04-17 12:46:00,
2013-04-17 07:48:00,41.2,36.1,30.22,East,98,5.0,8.0,82,0.00,,,0.03,Wunderground v.1.15,2013-04-17 12:48:00,
2013-04-17 07:49:00,41.2,36.1,30.21,East,82,5.0,8.0,82,0.00,,,0.03,Wunderground v.1.15,2013-04-17 12:49:00,
2013-04-17 07:51:00,41.1,36.0,30.18,ENE,76,6.0,6.0,82,0.00,,,0.03,Wunderground v.1.15,2013-04-17 12:51:00,
2013-04-17 07:54:00,41.0,35.9,30.15,NE,42,6.0,11.0,82,0.00,,,0.03,Wunderground v.1.15,2013-04-17 12:54:00,
2013-04-17 07:55:00,40.9,35.8,30.14,East,100,7.0,11.0,82,0.00,,,0.03,Wunderground v.1.15,2013-04-17 12:55:00,
2013-04-17 07:57:00,40.9,36.1,30.14,East,99,8.0,11.0,83,0.00,,,0.03,Wunderground v.1.15,2013-04-17 12:57:00,
2013-04-17 07:59:00,40.8,36.0,30.15,East,86,8.0,11.0,83,0.00,,,0.03,Wunderground v.1.15,2013-04-17 12:59:00,
2013-04-17 08:00:00,40.7,35.9,30.14,East,93,9.0,9.0,83,0.00,,,0.03,Wunderground v.1.15,2013-04-17 13:00:00,
2013-04-17 08:01:00,40.7,35.9,30.14,ENE,67,8.0,10.0,83,0.00,,,0.03,Wunderground v.1.15,2013-04-17 13:01:00,
2013-04-17 08:02:00,40.7,36.2,30.14,ESE,108,8.0,10.0,84,0.00,,,0.03,Wunderground v.1.15,2013-04-17 13:02:00,
2013-04-17 08:04:00,40.6,36.1,30.14,East,86,8.0,14.0,84,0.00,,,0.03,Wunderground v.1.15,2013-04-17 13:04:00,
2013-04-17 08:05:00,40.6,36.1,30.15,SE,128,8.0,16.0,84,0.00,,,0.03,Wunderground v.1.15,2013-04-17 13:05:00,
2013-04-17 08:09:00,40.6,36.1,30.18,ENE,68,8.0,16.0,84,0.00,,,0.03,Wunderground v.1.15,2013-04-17 13:09:00,
2013-04-17 08:11:00,40.6,36.1,30.18,East,88,8.0,9.0,84,0.00,,,0.03,Wunderground v.1.15,2013-04-17 13:11:00,
2013-04-17 08:12:00,40.6,36.1,30.18,ESE,111,7.0,9.0,84,0.00,,,0.03,Wunderground v.1.15,2013-04-17 13:12:00,
2013-04-17 08:16:00,40.7,36.2,30.18,ESE,107,7.0,9.0,84,0.00,,,0.03,Wunderground v.1.15,2013-04-17 13:16:00,
2013-04-17 08:17:00,40.7,36.2,30.17,ESE,123,7.0,11.0,84,0.00,,,0.03,Wunderground v.1.15,2013-04-17 13:17:00,
2013-04-17 08:18:00,40.7,36.2,30.17,ENE,59,7.0,11.0,84,0.00,,,0.04,Wunderground v.1.15,2013-04-17 13:18:00,
2013-04-17 08:21:00,40.7,36.2,30.17,ESE,105,7.0,8.0,84,0.00,,,0.04,Wunderground v.1.15,2013-04-17 13:21:00,
2013-04-17 08:22:00,40.7,36.2,30.17,ENE,67,7.0,8.0,84,0.00,,,0.04,Wunderground v.1.15,2013-04-17 13:22:00,
2013-04-17 08:23:00,40.7,36.2,30.17,ENE,71,7.0,9.0,84,0.00,,,0.04,Wunderground v.1.15,2013-04-17 13:23:00,
2013-04-17 08:25:00,40.8,36.3,30.18,East,91,7.0,9.0,84,0.00,,,0.04,Wunderground v.1.15,2013-04-17 13:25:00,
2013-04-17 08:27:00,40.8,36.0,30.19,East,98,7.0,9.0,83,0.00,,,0.04,Wunderground v.1.15,2013-04-17 13:27:00,
2013-04-17 08:29:00,40.9,36.1,30.19,East,94,7.0,9.0,83,0.00,,,0.04,Wunderground v.1.15,2013-04-17 13:29:00,
2013-04-17 08:30:00,40.9,36.4,30.18,East,89,7.0,7.0,84,0.00,,,0.04,Wunderground v.1.15,2013-04-17 13:30:00,
2013-04-17 08:32:00,41.0,36.2,30.17,ENE,74,6.0,7.0,83,0.00,,,0.04,Wunderground v.1.15,2013-04-17 13:32:00,
2013-04-17 08:33:00,41.0,36.2,30.17,ENE,58,7.0,7.0,83,0.00,,,0.04,Wunderground v.1.15,2013-04-17 13:33:00,
2013-04-17 08:34:00,41.0,36.2,30.17,East,82,7.0,7.0,83,0.00,,,0.04,Wunderground v.1.15,2013-04-17 13:34:00,
2013-04-17 08:37:00,41.1,36.3,30.17,East,87,6.0,8.0,83,0.00,,,0.04,Wunderground v.1.15,2013-04-17 13:37:00,
2013-04-17 08:38:00,41.1,36.3,30.17,East,82,6.0,8.0,83,0.00,,,0.04,Wunderground v.1.15,2013-04-17 13:38:00,
2013-04-17 08:39:00,41.1,36.6,30.16,East,87,6.0,11.0,84,0.00,,,0.04,Wunderground v.1.15,2013-04-17 13:39:00,
2013-04-17 08:43:00,41.2,36.4,30.15,East,79,7.0,11.0,83,0.00,,,0.04,Wunderground v.1.15,2013-04-17 13:43:00,
2013-04-17 08:45:00,41.2,36.4,30.13,ENE,78,7.0,12.0,83,0.00,,,0.04,Wunderground v.1.15,2013-04-17 13:45:00,
2013-04-17 08:46:00,41.2,36.4,30.13,ENE,78,7.0,15.0,83,0.00,,,0.04,Wunderground v.1.15,2013-04-17 13:46:00,
2013-04-17 08:48:00,41.3,36.5,30.12,East,84,8.0,15.0,83,0.00,,,0.04,Wunderground v.1.15,2013-04-17 13:48:00,
2013-04-17 08:49:00,41.3,36.5,30.13,NE,49,8.0,15.0,83,0.00,,,0.04,Wunderground v.1.15,2013-04-17 13:49:00,
2013-04-17 08:50:00,41.3,36.5,30.13,East,81,8.0,9.0,83,0.00,,,0.04,Wunderground v.1.15,2013-04-17 13:50:00,
2013-04-17 08:51:00,41.3,36.5,30.13,East,84,9.0,9.0,83,0.00,,,0.04,Wunderground v.1.15,2013-04-17 13:51:00,
2013-04-17 08:57:00,41.5,36.7,30.13,East,99,7.0,18.0,83,0.00,,,0.04,Wunderground v.1.15,2013-04-17 13:57:00,
2013-04-17 08:58:00,41.5,36.7,30.13,East,84,8.0,18.0,83,0.00,,,0.04,Wunderground v.1.15,2013-04-17 13:58:00,
2013-04-17 08:59:00,41.5,36.7,30.13,SE,135,8.0,18.0,83,0.00,,,0.04,Wunderground v.1.15,2013-04-17 13:59:00,
2013-04-17 09:04:00,41.6,36.5,30.14,ENE,58,7.0,17.0,82,0.00,,,0.04,Wunderground v.1.15,2013-04-17 14:04:00,
2013-04-17 09:05:00,41.6,36.8,30.14,North,5,7.0,17.0,83,0.00,,,0.04,Wunderground v.1.15,2013-04-17 14:05:00,
2013-04-17 09:08:00,41.6,36.5,30.13,ENE,75,6.0,17.0,82,0.00,,,0.04,Wunderground v.1.15,2013-04-17 14:08:00,
2013-04-17 09:10:00,41.7,36.9,30.14,East,94,6.0,6.0,83,0.00,,,0.04,Wunderground v.1.15,2013-04-17 14:10:00,
2013-04-17 09:12:00,41.7,36.6,30.14,ENE,65,6.0,11.0,82,0.00,,,0.04,Wunderground v.1.15,2013-04-17 14:12:00,
2013-04-17 09:13:00,41.7,36.6,30.14,East,101,6.0,11.0,82,0.00,,,0.04,Wunderground v.1.15,2013-04-17 14:13:00,
2013-04-17 09:14:00,41.8,36.7,30.15,ESE,109,6.0,11.0,82,0.00,,,0.04,Wunderground v.1.15,2013-04-17 14:14:00,
2013-04-17 09:15:00,41.8,36.7,30.15,East,81,6.0,11.0,82,0.00,,,0.04,Wunderground v.1.15,2013-04-17 14:15:00,
2013-04-17 09:18:00,41.8,36.7,30.17,ENE,65,7.0,11.0,82,0.00,,,0.04,Wunderground v.1.15,2013-04-17 14:18:00,
2013-04-17 09:19:00,41.9,36.8,30.17,ENE,63,6.0,11.0,82,0.00,,,0.04,Wunderground v.1.15,2013-04-17 14:19:00,
2013-04-17 09:20:00,41.9,36.8,30.17,ENE,67,6.0,9.0,82,0.00,,,0.04,Wunderground v.1.15,2013-04-17 14:20:00,
2013-04-17 09:22:00,41.9,36.8,30.16,East,92,6.0,11.0,82,0.00,,,0.04,Wunderground v.1.15,2013-04-17 14:22:00,
2013-04-17 09:26:00,42.0,36.9,30.17,ENE,73,5.0,11.0,82,0.00,,,0.04,Wunderground v.1.15,2013-04-17 14:26:00,
2013-04-17 09:28:00,42.1,37.0,30.18,NE,38,5.0,11.0,82,0.00,,,0.04,Wunderground v.1.15,2013-04-17 14:28:00,
2013-04-17 09:30:00,42.1,37.3,30.18,NE,42,4.0,4.0,83,0.00,,,0.04,Wunderground v.1.15,2013-04-17 14:30:00,
2013-04-17 09:31:00,42.1,37.3,30.17,NE,42,4.0,4.0,83,0.00,,,0.04,Wunderground v.1.15,2013-04-17 14:31:00,
2013-04-17 09:32:00,42.1,37.3,30.17,NE,54,3.0,4.0,83,0.00,,,0.04,Wunderground v.1.15,2013-04-17 14:32:00,
2013-04-17 09:33:00,42.1,37.3,30.15,East,84,3.0,5.0,83,0.00,,,0.04,Wunderground v.1.15,2013-04-17 14:33:00,
2013-04-17 09:39:00,42.1,37.6,30.13,ENE,67,5.0,11.0,84,0.00,,,0.05,Wunderground v.1.15,2013-04-17 14:39:00,
2013-04-17 09:40:00,42.0,37.5,30.12,East,83,6.0,8.0,84,0.00,,,0.05,Wunderground v.1.15,2013-04-17 14:40:00,
2013-04-17 09:41:00,42.1,37.6,30.12,East,79,6.0,8.0,84,0.00,,,0.05,Wunderground v.1.15,2013-04-17 14:41:00,
2013-04-17 09:43:00,42.0,37.8,30.11,ENE,65,6.0,8.0,85,0.00,,,0.05,Wunderground v.1.15,2013-04-17 14:43:00,
2013-04-17 09:45:00,41.9,37.7,30.10,East,80,6.0,9.0,85,0.00,,,0.05,Wunderground v.1.15,2013-04-17 14:45:00,
2013-04-17 09:46:00,41.9,37.7,30.09,ESE,103,7.0,11.0,85,0.00,,,0.05,Wunderground v.1.15,2013-04-17 14:46:00,
2013-04-17 09:51:00,41.8,37.6,30.08,ESE,119,8.0,8.0,85,0.00,,,0.05,Wunderground v.1.15,2013-04-17 14:51:00,
2013-04-17 09:52:00,41.8,37.6,30.12,ESE,117,7.0,8.0,85,0.00,,,0.05,Wunderground v.1.15,2013-04-17 14:52:00,
2013-04-17 09:55:00,41.8,37.3,30.13,ENE,67,7.0,11.0,84,0.00,,,0.05,Wunderground v.1.15,2013-04-17 14:55:00,
2013-04-17 09:57:00,41.8,37.3,30.12,NE,47,7.0,11.0,84,0.00,,,0.05,Wunderground v.1.15,2013-04-17 14:57:00,
2013-04-17 09:58:00,41.8,37.3,30.13,ESE,103,7.0,16.0,84,0.00,,,0.05,Wunderground v.1.15,2013-04-17 14:58:00,
2013-04-17 09:59:00,41.8,37.3,30.13,ESE,104,7.0,16.0,84,0.00,,,0.05,Wunderground v.1.15,2013-04-17 14:59:00,
2013-04-17 10:00:00,41.9,37.4,30.15,East,88,6.0,6.0,84,0.00,,,0.05,Wunderground v.1.15,2013-04-17 15:00:00,
2013-04-17 10:05:00,42.0,37.5,30.22,SSW,196,5.0,6.0,84,0.00,,,0.06,Wunderground v.1.15,2013-04-17 15:05:00,
2013-04-17 10:08:00,42.1,37.9,30.20,SSW,195,3.0,6.0,85,0.46,,,0.08,Wunderground v.1.15,2013-04-17 15:08:00,
2013-04-17 10:09:00,42.1,37.9,30.19,South,184,3.0,6.0,85,0.32,,,0.09,Wunderground v.1.15,2013-04-17 15:09:00,
2013-04-17 10:10:00,42.1,38.2,30.17,East,88,3.0,5.0,86,0.92,,,0.11,Wunderground v.1.15,2013-04-17 15:10:00,
2013-04-17 10:14:00,42.0,38.1,30.15,ENE,59,3.0,5.0,86,1.97,,,0.22,Wunderground v.1.15,2013-04-17 15:14:00,
2013-04-17 10:15:00,41.9,38.3,30.17,ENE,58,3.0,5.0,87,1.36,,,0.26,Wunderground v.1.15,2013-04-17 15:15:00,
2013-04-17 10:17:00,41.9,38.3,30.18,ENE,57,2.0,5.0,87,0.66,,,0.27,Wunderground v.1.15,2013-04-17 15:17:00,
2013-04-17 10:18:00,41.8,38.2,30.19,ENE,67,2.0,5.0,87,0.47,,,0.28,Wunderground v.1.15,2013-04-17 15:18:00,
2013-04-17 10:19:00,41.8,38.2,30.19,ENE,71,2.0,5.0,87,0.40,,,0.28,Wunderground v.1.15,2013-04-17 15:19:00,
2013-04-17 10:24:00,41.5,38.5,30.14,ENE,61,3.0,6.0,89,0.23,,,0.30,Wunderground v.1.15,2013-04-17 15:24:00,
2013-04-17 10:25:00,41.5,38.5,30.13,ESE,103,3.0,6.0,89,0.14,,,0.30,Wunderground v.1.15,2013-04-17 15:25:00,
2013-04-17 10:27:00,41.5,38.5,30.13,ENE,73,3.0,7.0,89,0.11,,,0.30,Wunderground v.1.15,2013-04-17 15:27:00,
2013-04-17 10:30:00,41.4,38.7,30.13,ESE,107,4.0,4.0,90,0.10,,,0.31,Wunderground v.1.15,2013-04-17 15:30:00,
2013-04-17 10:31:00,41.4,38.7,30.12,NNE,19,4.0,6.0,90,0.10,,,0.31,Wunderground v.1.15,2013-04-17 15:31:00,
2013-04-17 10:32:00,41.4,38.7,30.12,East,89,4.0,15.0,90,0.10,,,0.31,Wunderground v.1.15,2013-04-17 15:32:00,
2013-04-17 10:33:00,41.4,38.7,30.11,ENE,59,4.0,15.0,90,0.10,,,0.31,Wunderground v.1.15,2013-04-17 15:33:00,
2013-04-17 10:36:00,41.4,38.7,30.11,NE,55,5.0,15.0,90,0.07,,,0.31,Wunderground v.1.15,2013-04-17 15:36:00,
2013-04-17 10:38:00,41.4,39.0,30.11,ESE,106,5.0,15.0,91,0.06,,,0.32,Wunderground v.1.15,2013-04-17 15:38:00,
2013-04-17 10:39:00,41.4,39.0,30.11,East,85,5.0,15.0,91,0.06,,,0.32,Wunderground v.1.15,2013-04-17 15:39:00,
2013-04-17 10:40:00,41.5,39.1,30.11,ENE,74,6.0,7.0,91,0.06,,,0.32,Wunderground v.1.15,2013-04-17 15:40:00,
2013-04-17 10:42:00,41.5,39.1,30.11,ENE,62,6.0,7.0,91,0.06,,,0.32,Wunderground v.1.15,2013-04-17 15:42:00,
2013-04-17 10:45:00,41.5,39.1,30.10,East,80,5.0,11.0,91,0.06,,,0.32,Wunderground v.1.15,2013-04-17 15:45:00,
2013-04-17 10:48:00,41.5,39.1,30.10,East,82,6.0,11.0,91,0.05,,,0.32,Wunderground v.1.15,2013-04-17 15:48:00,
2013-04-17 10:50:00,41.6,39.2,30.10,East,86,6.0,6.0,91,0.04,,,0.32,Wunderground v.1.15,2013-04-17 15:50:00,
2013-04-17 10:52:00,41.6,39.2,30.10,East,81,6.0,6.0,91,0.04,,,0.32,Wunderground v.1.15,2013-04-17 15:52:00,
2013-04-17 10:54:00,41.6,39.2,30.09,East,96,7.0,9.0,91,0.00,,,0.32,Wunderground v.1.15,2013-04-17 15:54:00,
2013-04-17 10:55:00,41.6,39.2,30.08,ESE,106,7.0,18.0,91,0.00,,,0.33,Wunderground v.1.15,2013-04-17 15:55:00,
2013-04-17 10:58:00,41.6,39.2,30.07,East,79,8.0,18.0,91,0.21,,,0.34,Wunderground v.1.15,2013-04-17 15:58:00,
2013-04-17 11:02:00,41.6,39.2,30.06,East,88,9.0,9.0,91,0.19,,,0.35,Wunderground v.1.15,2013-04-17 16:02:00,
2013-04-17 11:03:00,41.7,39.3,30.06,East,79,9.0,9.0,91,0.19,,,0.35,Wunderground v.1.15,2013-04-17 16:03:00,
2013-04-17 11:08:00,41.7,39.3,30.08,ESE,107,8.0,19.0,91,0.11,,,0.36,Wunderground v.1.15,2013-04-17 16:08:00,
2013-04-17 11:09:00,41.7,39.5,30.08,East,100,8.0,19.0,92,0.11,,,0.36,Wunderground v.1.15,2013-04-17 16:09:00,
2013-04-17 11:10:00,41.8,39.6,30.09,ESE,115,7.0,13.0,92,0.11,,,0.36,Wunderground v.1.15,2013-04-17 16:10:00,
2013-04-17 11:11:00,41.8,39.6,30.09,East,83,7.0,13.0,92,0.11,,,0.36,Wunderground v.1.15,2013-04-17 16:11:00,
2013-04-17 11:14:00,41.8,39.6,30.11,East,101,7.0,13.0,92,0.07,,,0.36,Wunderground v.1.15,2013-04-17 16:14:00,
2013-04-17 11:17:00,41.9,39.7,30.14,East,99,6.0,13.0,92,2.45,,,0.40,Wunderground v.1.15,2013-04-17 16:17:00,
2013-04-17 11:18:00,42.0,39.8,30.14,ESE,114,6.0,13.0,92,3.20,,,0.45,Wunderground v.1.15,2013-04-17 16:18:00,
2013-04-17 11:20:00,42.0,39.8,30.13,East,85,6.0,6.0,92,2.52,,,0.53,Wunderground v.1.15,2013-04-17 16:20:00,
2013-04-17 11:21:00,42.0,39.8,30.12,East,79,6.0,6.0,92,1.80,,,0.55,Wunderground v.1.15,2013-04-17 16:21:00,
2013-04-17 11:23:00,41.9,39.7,30.11,East,91,6.0,8.0,92,2.00,,,0.62,Wunderground v.1.15,2013-04-17 16:23:00,
2013-04-17 11:26:00,41.9,39.7,30.10,ENE,69,6.0,9.0,92,0.34,,,0.64,Wunderground v.1.15,2013-04-17 16:26:00,
2013-04-17 11:27:00,41.9,39.7,30.10,East,82,6.0,9.0,92,0.34,,,0.65,Wunderground v.1.15,2013-04-17 16:27:00,
2013-04-17 11:28:00,41.8,39.6,30.10,ESE,105,7.0,12.0,92,1.19,,,0.66,Wunderground v.1.15,2013-04-17 16:28:00,
2013-04-17 11:29:00,41.8,39.6,30.10,ENE,67,7.0,12.0,92,1.11,,,0.68,Wunderground v.1.15,2013-04-17 16:29:00,
2013-04-17 11:33:00,41.6,39.4,30.10,ESE,102,8.0,13.0,92,0.46,,,0.73,Wunderground v.1.15,2013-04-17 16:33:00,
2013-04-17 11:34:00,41.7,39.5,30.10,East,98,7.0,13.0,92,0.40,,,0.73,Wunderground v.1.15,2013-04-17 16:34:00,
2013-04-17 11:35:00,41.7,39.8,30.10,East,82,7.0,13.0,93,0.20,,,0.73,Wunderground v.1.15,2013-04-17 16:35:00,
2013-04-17 11:37:00,41.7,39.8,30.09,ESE,105,7.0,13.0,93,0.14,,,0.73,Wunderground v.1.15,2013-04-17 16:37:00,
2013-04-17 11:39:00,41.7,39.8,30.10,East,96,7.0,13.0,93,0.11,,,0.74,Wunderground v.1.15,2013-04-17 16:39:00,
2013-04-17 11:42:00,41.8,39.9,30.10,East,90,6.0,9.0,93,0.11,,,0.74,Wunderground v.1.15,2013-04-17 16:42:00,
2013-04-17 11:43:00,41.8,39.9,30.10,NE,42,6.0,10.0,93,1.48,,,0.76,Wunderground v.1.15,2013-04-17 16:43:00,
2013-04-17 11:44:00,41.8,39.9,30.10,East,88,6.0,10.0,93,3.06,,,0.81,Wunderground v.1.15,2013-04-17 16:44:00,
2013-04-17 11:48:00,41.7,39.8,30.09,ENE,75,7.0,11.0,93,0.38,,,0.88,Wunderground v.1.15,2013-04-17 16:48:00,
2013-04-17 11:49:00,41.7,39.8,30.08,ENE,65,7.0,11.0,93,0.31,,,0.88,Wunderground v.1.15,2013-04-17 16:49:00,
2013-04-17 11:50:00,41.6,39.7,30.09,ENE,62,7.0,8.0,93,0.17,,,0.88,Wunderground v.1.15,2013-04-17 16:50:00,
2013-04-17 11:51:00,41.6,39.7,30.09,ENE,72,8.0,11.0,93,0.15,,,0.88,Wunderground v.1.15,2013-04-17 16:51:00,
2013-04-17 11:55:00,41.6,39.7,30.08,ENE,69,8.0,11.0,93,0.71,,,0.93,Wunderground v.1.15,2013-04-17 16:55:00,
2013-04-17 11:57:00,41.6,39.7,30.08,ESE,106,8.0,11.0,93,1.07,,,0.96,Wunderground v.1.15,2013-04-17 16:57:00,
2013-04-17 11:58:00,41.6,39.7,30.07,ENE,76,8.0,11.0,93,1.26,,,0.98,Wunderground v.1.15,2013-04-17 16:58:00,
2013-04-17 12:00:00,41.6,39.7,30.06,ESE,107,7.0,7.0,93,3.65,,,1.14,Wunderground v.1.15,2013-04-17 17:00:00,
2013-04-17 12:03:00,41.4,39.5,30.05,ENE,57,8.0,10.0,93,6.00,,,1.39,Wunderground v.1.15,2013-04-17 17:03:00,
2013-04-17 12:04:00,41.3,39.4,30.03,NE,47,8.0,10.0,93,5.65,,,1.45,Wunderground v.1.15,2013-04-17 17:04:00,
2013-04-17 12:08:00,41.1,39.2,30.03,East,95,8.0,15.0,93,0.60,,,1.54,Wunderground v.1.15,2013-04-17 17:08:00,
2013-04-17 12:10:00,41.1,39.5,30.03,East,85,9.0,9.0,94,0.39,,,1.55,Wunderground v.1.15,2013-04-17 17:10:00,
2013-04-17 12:12:00,41.2,39.6,30.03,East,98,8.0,9.0,94,0.22,,,1.55,Wunderground v.1.15,2013-04-17 17:12:00,
2013-04-17 12:16:00,41.4,39.8,30.02,ENE,78,7.0,15.0,94,0.26,,,1.57,Wunderground v.1.15,2013-04-17 17:16:00,
2013-04-17 12:17:00,41.5,39.9,30.02,East,94,7.0,15.0,94,0.22,,,1.57,Wunderground v.1.15,2013-04-17 17:17:00,
2013-04-17 12:18:00,41.6,40.0,30.02,East,87,7.0,15.0,94,0.16,,,1.57,Wunderground v.1.15,2013-04-17 17:18:00,
2013-04-17 12:19:00,41.8,40.2,30.01,NE,55,7.0,15.0,94,0.12,,,1.57,Wunderground v.1.15,2013-04-17 17:19:00,
2013-04-17 12:22:00,42.4,41.1,30.00,NE,38,7.0,15.0,95,0.08,,,1.57,Wunderground v.1.15,2013-04-17 17:22:00,
2013-04-17 12:23:00,42.6,41.3,30.00,ENE,76,8.0,15.0,95,0.08,,,1.58,Wunderground v.1.15,2013-04-17 17:23:00,
2013-04-17 12:25:00,43.0,41.7,30.01,ENE,72,9.0,15.0,95,0.08,,,1.58,Wunderground v.1.15,2013-04-17 17:25:00,
2013-04-17 12:26:00,43.1,41.8,30.01,East,98,9.0,15.0,95,0.08,,,1.58,Wunderground v.1.15,2013-04-17 17:26:00,
2013-04-17 12:28:00,43.1,41.8,30.01,NE,35,9.0,15.0,95,0.08,,,1.58,Wunderground v.1.15,2013-04-17 17:28:00,
2013-04-17 12:32:00,43.1,41.5,30.01,ENE,78,10.0,15.0,94,0.06,,,1.58,Wunderground v.1.15,2013-04-17 17:32:00,
2013-04-17 12:33:00,43.0,41.4,30.00,ENE,77,10.0,16.0,94,0.06,,,1.58,Wunderground v.1.15,2013-04-17 17:33:00,
2013-04-17 12:34:00,43.0,41.4,30.00,ESE,103,10.0,16.0,94,0.05,,,1.58,Wunderground v.1.15,2013-04-17 17:34:00,
2013-04-17 12:35:00,43.0,41.4,30.00,East,92,10.0,16.0,94,0.04,,,1.58,Wunderground v.1.15,2013-04-17 17:35:00,
2013-04-17 12:37:00,43.0,41.4,29.99,East,92,9.0,18.0,94,0.04,,,1.58,Wunderground v.1.15,2013-04-17 17:37:00,
2013-04-17 12:38:00,43.0,41.4,29.98,East,86,10.0,18.0,94,0.04,,,1.58,Wunderground v.1.15,2013-04-17 17:38:00,
2013-04-17 12:39:00,43.0,41.4,29.98,East,92,10.0,18.0,94,0.00,,,1.58,Wunderground v.1.15,2013-04-17 17:39:00,
2013-04-17 12:40:00,43.0,41.4,29.98,ENE,76,9.0,10.0,94,0.00,,,1.58,Wunderground v.1.15,2013-04-17 17:40:00,
2013-04-17 12:44:00,43.0,41.4,29.98,ENE,78,9.0,10.0,94,0.00,,,1.58,Wunderground v.1.15,2013-04-17 17:44:00,
2013-04-17 12:45:00,42.9,41.3,29.98,East,81,9.0,17.0,94,0.00,,,1.58,Wunderground v.1.15,2013-04-17 17:45:00,
2013-04-17 12:48:00,42.8,41.2,29.98,NE,37,10.0,17.0,94,0.00,,,1.58,Wunderground v.1.15,2013-04-17 17:48:00,
2013-04-17 12:49:00,42.8,41.2,29.98,ESE,102,10.0,17.0,94,0.00,,,1.58,Wunderground v.1.15,2013-04-17 17:49:00,
2013-04-17 12:50:00,42.8,41.2,29.99,ESE,112,10.0,13.0,94,0.00,,,1.58,Wunderground v.1.15,2013-04-17 17:50:00,
2013-04-17 12:51:00,42.8,41.2,29.99,East,101,9.0,13.0,94,0.00,,,1.58,Wunderground v.1.15,2013-04-17 17:51:00,
2013-04-17 12:54:00,42.8,41.2,30.13,NW,315,9.0,13.0,94,0.00,,,1.58,Wunderground v.1.15,2013-04-17 17:54:00,
2013-04-17 12:55:00,42.9,41.3,30.14,NW,317,9.0,17.0,94,0.00,,,1.58,Wunderground v.1.15,2013-04-17 17:55:00,
2013-04-17 12:58:00,42.8,41.2,30.15,NW,323,8.0,17.0,94,0.00,,,1.59,Wunderground v.1.15,2013-04-17 17:58:00,
2013-04-17 13:01:00,42.8,41.2,30.12,East,93,9.0,18.0,94,1.63,,,1.62,Wunderground v.1.15,2013-04-17 18:01:00,
2013-04-17 13:03:00,42.9,41.3,30.00,ENE,78,10.0,18.0,94,5.43,,,1.72,Wunderground v.1.15,2013-04-17 18:03:00,
2013-04-17 13:04:00,43.0,41.4,30.00,West,274,10.0,18.0,94,6.26,,,1.76,Wunderground v.1.15,2013-04-17 18:04:00,
2013-04-17 13:08:00,43.3,41.7,30.13,NNW,342,9.0,18.0,94,0.95,,,1.90,Wunderground v.1.15,2013-04-17 18:08:00,
2013-04-17 13:09:00,43.3,41.7,30.11,NE,46,9.0,18.0,94,0.58,,,1.91,Wunderground v.1.15,2013-04-17 18:09:00,
2013-04-17 13:11:00,43.5,41.9,30.10,ESE,121,8.0,9.0,94,0.26,,,1.91,Wunderground v.1.15,2013-04-17 18:11:00,
2013-04-17 13:13:00,43.6,42.0,30.10,East,86,7.0,9.0,94,1.46,,,1.95,Wunderground v.1.15,2013-04-17 18:13:00,
2013-04-17 13:15:00,43.6,42.0,30.09,NNE,30,6.0,9.0,94,0.49,,,1.97,Wunderground v.1.15,2013-04-17 18:15:00,
2013-04-17 13:16:00,43.6,42.0,30.09,NNE,28,6.0,9.0,94,0.49,,,1.98,Wunderground v.1.15,2013-04-17 18:16:00,
2013-04-17 13:20:00,43.7,42.1,30.09,ENE,78,6.0,6.0,94,0.18,,,1.99,Wunderground v.1.15,2013-04-17 18:20:00,
2013-04-17 13:21:00,43.7,42.1,30.09,ENE,78,6.0,6.0,94,0.16,,,1.99,Wunderground v.1.15,2013-04-17 18:21:00,
2013-04-17 13:24:00,43.7,42.1,30.13,East,80,4.0,6.0,94,0.13,,,2.00,Wunderground v.1.15,2013-04-17 18:24:00,
2013-04-17 13:27:00,43.9,42.3,30.13,NW,319,3.0,6.0,94,0.12,,,2.00,Wunderground v.1.15,2013-04-17 18:27:00,
2013-04-17 13:28:00,43.9,42.3,30.21,West,273,3.0,6.0,94,0.10,,,2.00,Wunderground v.1.15,2013-04-17 18:28:00,
2013-04-17 13:32:00,44.0,42.4,30.18,NNW,338,3.0,11.0,94,1.47,,,2.05,Wunderground v.1.15,2013-04-17 18:32:00,
2013-04-17 13:33:00,43.9,42.3,30.15,NNW,341,4.0,11.0,94,0.87,,,2.06,Wunderground v.1.15,2013-04-17 18:33:00,
2013-04-17 13:34:00,43.8,42.2,30.17,NW,316,5.0,11.0,94,0.73,,,2.07,Wunderground v.1.15,2013-04-17 18:34:00,
2013-04-17 13:35:00,43.7,41.8,30.18,WNW,301,5.0,11.0,93,0.53,,,2.09,Wunderground v.1.15,2013-04-17 18:35:00,
2013-04-17 13:38:00,43.5,41.6,30.17,ENE,57,5.0,11.0,93,0.44,,,2.11,Wunderground v.1.15,2013-04-17 18:38:00,
2013-04-17 13:40:00,43.4,41.8,30.13,NE,37,5.0,5.0,94,1.47,,,2.16,Wunderground v.1.15,2013-04-17 18:40:00,
2013-04-17 13:42:00,43.3,41.7,30.13,West,263,5.0,6.0,94,1.19,,,2.21,Wunderground v.1.15,2013-04-17 18:42:00,
2013-04-17 13:44:00,43.3,41.7,30.17,South,170,5.0,6.0,94,0.66,,,2.24,Wunderground v.1.15,2013-04-17 18:44:00,
2013-04-17 13:46:00,43.3,41.7,30.14,SE,131,5.0,6.0,94,0.81,,,2.28,Wunderground v.1.15,2013-04-17 18:46:00,
2013-04-17 13:47:00,43.3,41.7,30.13,SE,130,5.0,8.0,94,0.91,,,2.29,Wunderground v.1.15,2013-04-17 18:47:00,
2013-04-17 13:49:00,43.3,41.7,30.11,SE,140,5.0,8.0,94,1.09,,,2.33,Wunderground v.1.15,2013-04-17 18:49:00,
2013-04-17 13:50:00,43.3,41.7,30.11,SE,138,5.0,5.0,94,1.11,,,2.36,Wunderground v.1.15,2013-04-17 18:50:00,
2013-04-17 13:52:00,43.3,41.7,30.09,East,92,5.0,5.0,94,0.51,,,2.37,Wunderground v.1.15,2013-04-17 18:52:00,
2013-04-17 13:54:00,43.3,41.7,30.09,ENE,60,5.0,5.0,94,0.39,,,2.38,Wunderground v.1.15,2013-04-17 18:54:00,
2013-04-17 13:55:00,43.3,41.7,30.09,East,85,5.0,5.0,94,0.35,,,2.39,Wunderground v.1.15,2013-04-17 18:55:00,
2013-04-17 13:56:00,43.3,41.7,30.09,ENE,68,5.0,6.0,94,0.35,,,2.39,Wunderground v.1.15,2013-04-17 18:56:00,
2013-04-17 13:59:00,43.4,42.1,30.07,ENE,72,5.0,11.0,95,0.22,,,2.41,Wunderground v.1.15,2013-04-17 18:59:00,
2013-04-17 14:00:00,43.5,42.2,30.06,NNE,32,5.0,5.0,95,0.22,,,2.41,Wunderground v.1.15,2013-04-17 19:00:00,
2013-04-17 14:01:00,43.5,42.2,30.06,NNE,31,5.0,5.0,95,0.22,,,2.41,Wunderground v.1.15,2013-04-17 19:01:00,
2013-04-17 14:07:00,43.7,42.4,30.07,SE,130,5.0,6.0,95,0.10,,,2.42,Wunderground v.1.15,2013-04-17 19:07:00,
2013-04-17 14:08:00,43.7,42.4,30.07,East,82,5.0,6.0,95,0.10,,,2.42,Wunderground v.1.15,2013-04-17 19:08:00,
2013-04-17 14:09:00,43.8,42.5,30.07,East,97,5.0,6.0,95,0.10,,,2.42,Wunderground v.1.15,2013-04-17 19:09:00,
2013-04-17 14:12:00,43.9,42.6,30.07,ENE,61,4.0,6.0,95,0.13,,,2.43,Wunderground v.1.15,2013-04-17 19:12:00,
2013-04-17 14:13:00,44.0,42.7,30.06,East,80,4.0,6.0,95,0.13,,,2.43,Wunderground v.1.15,2013-04-17 19:13:00,
2013-04-17 14:14:00,44.0,42.7,30.06,NE,53,4.0,6.0,95,0.13,,,2.44,Wunderground v.1.15,2013-04-17 19:14:00,
2013-04-17 14:15:00,44.1,42.8,30.06,East,88,4.0,6.0,95,0.13,,,2.44,Wunderground v.1.15,2013-04-17 19:15:00,
2013-04-17 14:16:00,44.1,42.8,30.06,ESE,102,4.0,6.0,95,0.13,,,2.44,Wunderground v.1.15,2013-04-17 19:16:00,
2013-04-17 14:20:00,44.1,42.8,30.04,ENE,57,4.0,4.0,95,0.11,,,2.45,Wunderground v.1.15,2013-04-17 19:20:00,
2013-04-17 14:22:00,44.1,42.8,30.04,East,90,4.0,8.0,95,0.11,,,2.45,Wunderground v.1.15,2013-04-17 19:22:00,
2013-04-17 14:23:00,44.1,42.8,30.05,East,98,4.0,8.0,95,0.11,,,2.45,Wunderground v.1.15,2013-04-17 19:23:00,
2013-04-17 14:25:00,44.0,42.7,30.06,SSE,161,5.0,8.0,95,0.09,,,2.45,Wunderground v.1.15,2013-04-17 19:25:00,
2013-04-17 14:26:00,44.1,42.8,30.06,East,93,5.0,8.0,95,0.09,,,2.45,Wunderground v.1.15,2013-04-17 19:26:00,
2013-04-17 14:27:00,44.1,42.8,30.06,East,94,5.0,8.0,95,0.08,,,2.45,Wunderground v.1.15,2013-04-17 19:27:00,
2013-04-17 14:30:00,44.1,42.8,30.06,ENE,61,5.0,6.0,95,0.07,,,2.46,Wunderground v.1.15,2013-04-17 19:30:00,
2013-04-17 14:31:00,44.1,42.8,30.06,ENE,63,5.0,6.0,95,0.07,,,2.46,Wunderground v.1.15,2013-04-17 19:31:00,
2013-04-17 14:33:00,44.0,42.7,30.05,ENE,78,5.0,9.0,95,0.07,,,2.46,Wunderground v.1.15,2013-04-17 19:33:00,
2013-04-17 14:35:00,44.0,42.7,30.04,ENE,78,5.0,9.0,95,0.11,,,2.47,Wunderground v.1.15,2013-04-17 19:35:00,
2013-04-17 14:37:00,44.0,42.7,30.03,East,84,4.0,9.0,95,0.11,,,2.47,Wunderground v.1.15,2013-04-17 19:37:00,
2013-04-17 14:40:00,44.0,42.7,30.02,ESE,102,4.0,4.0,95,0.09,,,2.48,Wunderground v.1.15,2013-04-17 19:40:00,
2013-04-17 14:41:00,44.0,42.7,30.02,East,98,4.0,4.0,95,0.09,,,2.48,Wunderground v.1.15,2013-04-17 19:41:00,
2013-04-17 14:43:00,44.0,42.7,30.02,East,92,5.0,5.0,95,0.09,,,2.48,Wunderground v.1.15,2013-04-17 19:43:00,
2013-04-17 14:46:00,44.0,42.7,30.03,ENE,66,5.0,11.0,95,0.11,,,2.49,Wunderground v.1.15,2013-04-17 19:46:00,
2013-04-17 14:47:00,44.0,42.7,30.03,ENE,76,6.0,11.0,95,0.11,,,2.49,Wunderground v.1.15,2013-04-17 19:47:00,
2013-04-17 14:48:00,44.1,42.8,30.03,ENE,67,6.0,11.0,95,0.11,,,2.49,Wunderground v.1.15,2013-04-17 19:48:00,
2013-04-17 14:51:00,44.1,42.8,30.02,ENE,66,6.0,6.0,95,0.10,,,2.49,Wunderground v.1.15,2013-04-17 19:51:00,
2013-04-17 14:53:00,44.1,42.8,30.01,East,94,6.0,6.0,95,0.08,,,2.50,Wunderground v.1.15,2013-04-17 19:53:00,
2013-04-17 14:54:00,44.2,42.9,30.02,East,93,6.0,7.0,95,0.08,,,2.50,Wunderground v.1.15,2013-04-17 19:54:00,
2013-04-17 14:57:00,44.1,42.8,30.01,East,82,6.0,7.0,95,0.18,,,2.51,Wunderground v.1.15,2013-04-17 19:57:00,
2013-04-17 14:58:00,44.1,42.8,30.00,ENE,59,6.0,9.0,95,0.18,,,2.51,Wunderground v.1.15,2013-04-17 19:58:00,
2013-04-17 15:01:00,44.1,42.8,29.99,ENE,66,6.0,10.0,95,0.15,,,2.52,Wunderground v.1.15,2013-04-17 20:01:00,
2013-04-17 15:02:00,44.1,42.8,30.00,East,84,6.0,10.0,95,0.15,,,2.52,Wunderground v.1.15,2013-04-17 20:02:00,
2013-04-17 15:03:00,44.1,42.8,30.00,ESE,115,6.0,10.0,95,0.15,,,2.52,Wunderground v.1.15,2013-04-17 20:03:00,
2013-04-17 15:08:00,44.1,42.8,30.01,East,91,6.0,10.0,95,0.10,,,2.53,Wunderground v.1.15,2013-04-17 20:08:00,
2013-04-17 15:10:00,44.1,42.8,30.01,SE,128,6.0,6.0,95,0.10,,,2.53,Wunderground v.1.15,2013-04-17 20:10:00,
2013-04-17 15:13:00,44.1,42.8,30.06,SSE,150,7.0,7.0,95,0.09,,,2.53,Wunderground v.1.15,2013-04-17 20:13:00,
2013-04-17 15:14:00,44.1,42.8,30.07,South,178,6.0,7.0,95,0.07,,,2.53,Wunderground v.1.15,2013-04-17 20:14:00,
2013-04-17 15:18:00,44.1,42.8,30.06,SE,134,5.0,7.0,95,0.05,,,2.53,Wunderground v.1.15,2013-04-17 20:18:00,
2013-04-17 15:21:00,44.1,42.8,30.04,East,99,4.0,10.0,95,0.05,,,2.54,Wunderground v.1.15,2013-04-17 20:21:00,
2013-04-17 15:22:00,44.1,42.8,30.03,East,98,4.0,10.0,95,0.20,,,2.55,Wunderground v.1.15,2013-04-17 20:22:00,
2013-04-17 15:24:00,44.1,42.8,30.01,ENE,71,4.0,10.0,95,0.20,,,2.55,Wunderground v.1.15,2013-04-17 20:24:00,
2013-04-17 15:26:00,44.1,42.8,30.00,ESE,106,5.0,10.0,95,0.23,,,2.56,Wunderground v.1.15,2013-04-17 20:26:00,
2013-04-17 15:27:00,44.1,42.8,30.00,ENE,74,5.0,10.0,95,0.21,,,2.56,Wunderground v.1.15,2013-04-17 20:27:00,
2013-04-17 15:29:00,44.0,42.7,30.00,East,80,6.0,10.0,95,0.18,,,2.57,Wunderground v.1.15,2013-04-17 20:29:00,
2013-04-17 15:34:00,44.0,42.7,29.98,East,84,6.0,11.0,95,0.09,,,2.57,Wunderground v.1.15,2013-04-17 20:34:00,
2013-04-17 15:35:00,44.0,42.7,29.98,East,86,6.0,11.0,95,0.07,,,2.57,Wunderground v.1.15,2013-04-17 20:35:00,
2013-04-17 15:37:00,44.0,42.7,29.98,East,82,5.0,19.0,95,0.06,,,2.57,Wunderground v.1.15,2013-04-17 20:37:00,
2013-04-17 15:39:00,44.0,42.7,29.99,East,92,5.0,19.0,95,0.05,,,2.57,Wunderground v.1.15,2013-04-17 20:39:00,
2013-04-17 15:41:00,44.1,42.8,29.99,ESE,105,4.0,7.0,95,0.04,,,2.57,Wunderground v.1.15,2013-04-17 20:41:00,
2013-04-17 15:44:00,44.1,42.8,30.01,ESE,108,4.0,7.0,95,0.04,,,2.58,Wunderground v.1.15,2013-04-17 20:44:00,
2013-04-17 15:46:00,44.2,42.9,30.02,ESE,121,5.0,7.0,95,0.04,,,2.58,Wunderground v.1.15,2013-04-17 20:46:00,
2013-04-17 15:48:00,44.2,42.9,30.02,ESE,111,4.0,11.0,95,0.04,,,2.58,Wunderground v.1.15,2013-04-17 20:48:00,
2013-04-17 15:49:00,44.2,42.9,30.02,East,90,4.0,11.0,95,0.04,,,2.58,Wunderground v.1.15,2013-04-17 20:49:00,
2013-04-17 15:52:00,44.3,43.0,30.02,East,90,5.0,9.0,95,0.04,,,2.58,Wunderground v.1.15,2013-04-17 20:52:00,
2013-04-17 15:54:00,44.3,43.0,30.03,East,98,4.0,9.0,95,0.04,,,2.58,Wunderground v.1.15,2013-04-17 20:54:00,
2013-04-17 15:55:00,44.4,43.1,30.03,SE,141,4.0,9.0,95,0.04,,,2.58,Wunderground v.1.15,2013-04-17 20:55:00,
2013-04-17 15:58:00,44.4,43.1,30.04,SE,138,4.0,9.0,95,0.04,,,2.58,Wunderground v.1.15,2013-04-17 20:58:00,
2013-04-17 15:59:00,44.5,43.2,30.04,SE,138,3.0,9.0,95,0.00,,,2.58,Wunderground v.1.15,2013-04-17 20:59:00,
2013-04-17 16:01:00,44.5,43.2,30.04,East,87,3.0,5.0,95,0.00,,,2.58,Wunderground v.1.15,2013-04-17 21:01:00,
2013-04-17 16:02:00,44.5,43.2,30.04,East,92,3.0,5.0,95,0.00,,,2.58,Wunderground v.1.15,2013-04-17 21:02:00,
2013-04-17 16:03:00,44.5,43.2,30.04,SE,131,3.0,5.0,95,0.00,,,2.58,Wunderground v.1.15,2013-04-17 21:03:00,
2013-04-17 16:04:00,44.5,43.2,30.04,ESE,107,4.0,6.0,95,0.00,,,2.58,Wunderground v.1.15,2013-04-17 21:04:00,
2013-04-17 16:07:00,44.5,43.2,30.04,East,92,4.0,6.0,95,0.00,,,2.59,Wunderground v.1.15,2013-04-17 21:07:00,
2013-04-17 16:09:00,44.5,43.2,30.03,SE,134,4.0,6.0,95,0.00,,,2.59,Wunderground v.1.15,2013-04-17 21:09:00,
2013-04-17 16:10:00,44.5,43.2,30.03,ESE,107,5.0,5.0,95,0.00,,,2.59,Wunderground v.1.15,2013-04-17 21:10:00,
2013-04-17 16:11:00,44.5,43.2,30.02,ENE,66,5.0,6.0,95,0.00,,,2.59,Wunderground v.1.15,2013-04-17 21:11:00,
2013-04-17 16:12:00,44.5,43.2,30.03,East,83,5.0,6.0,95,0.00,,,2.59,Wunderground v.1.15,2013-04-17 21:12:00,
2013-04-17 16:16:00,44.4,43.1,30.03,East,90,5.0,6.0,95,0.00,,,2.59,Wunderground v.1.15,2013-04-17 21:16:00,
2013-04-17 16:17:00,44.4,43.1,30.02,East,88,5.0,6.0,95,0.00,,,2.59,Wunderground v.1.15,2013-04-17 21:17:00,
2013-04-17 16:19:00,44.4,43.1,30.02,East,96,5.0,7.0,95,0.05,,,2.60,Wunderground v.1.15,2013-04-17 21:19:00,
2013-04-17 16:20:00,44.4,42.8,30.02,ENE,77,5.0,10.0,94,0.05,,,2.60,Wunderground v.1.15,2013-04-17 21:20:00,
2013-04-17 16:22:00,44.4,42.8,30.01,ESE,107,5.0,10.0,94,0.05,,,2.60,Wunderground v.1.15,2013-04-17 21:22:00,
2013-04-17 16:25:00,44.3,42.7,30.01,East,90,6.0,11.0,94,0.05,,,2.60,Wunderground v.1.15,2013-04-17 21:25:00,
2013-04-17 16:26:00,44.3,42.7,30.01,East,96,6.0,11.0,94,0.05,,,2.60,Wunderground v.1.15,2013-04-17 21:26:00,
2013-04-17 16:28:00,44.3,42.7,30.01,ESE,110,6.0,11.0,94,0.05,,,2.60,Wunderground v.1.15,2013-04-17 21:28:00,
2013-04-17 16:30:00,44.3,42.7,29.99,East,85,6.0,9.0,94,0.05,,,2.60,Wunderground v.1.15,2013-04-17 21:30:00,
2013-04-17 16:34:00,44.2,42.6,29.98,East,101,7.0,10.0,94,0.05,,,2.61,Wunderground v.1.15,2013-04-17 21:34:00,
2013-04-17 16:35:00,44.1,42.5,29.98,ESE,103,6.0,10.0,94,0.05,,,2.61,Wunderground v.1.15,2013-04-17 21:35:00,
2013-04-17 16:36:00,44.1,42.5,29.98,East,79,6.0,10.0,94,0.05,,,2.61,Wunderground v.1.15,2013-04-17 21:36:00,
2013-04-17 16:37:00,44.1,42.5,29.98,East,82,6.0,10.0,94,0.05,,,2.61,Wunderground v.1.15,2013-04-17 21:37:00,
2013-04-17 16:40:00,44.0,42.4,29.98,East,92,6.0,8.0,94,0.10,,,2.62,Wunderground v.1.15,2013-04-17 21:40:00,
2013-04-17 16:42:00,44.0,42.4,29.98,ESE,107,5.0,9.0,94,0.14,,,2.63,Wunderground v.1.15,2013-04-17 21:42:00,
2013-04-17 16:43:00,43.9,42.3,29.98,East,83,5.0,9.0,94,0.14,,,2.63,Wunderground v.1.15,2013-04-17 21:43:00,
2013-04-17 16:45:00,43.8,42.2,29.97,ESE,104,5.0,9.0,94,0.14,,,2.63,Wunderground v.1.15,2013-04-17 21:45:00,
2013-04-17 16:47:00,43.8,42.2,29.97,East,98,5.0,10.0,94,0.11,,,2.63,Wunderground v.1.15,2013-04-17 21:47:00,
2013-04-17 16:49:00,43.8,42.2,29.97,ESE,104,5.0,10.0,94,0.11,,,2.64,Wunderground v.1.15,2013-04-17 21:49:00,
2013-04-17 16:52:00,43.7,42.1,29.97,East,90,5.0,7.0,94,0.11,,,2.64,Wunderground v.1.15,2013-04-17 21:52:00,
2013-04-17 16:53:00,43.7,42.1,29.96,East,91,5.0,7.0,94,0.10,,,2.64,Wunderground v.1.15,2013-04-17 21:53:00,
2013-04-17 16:57:00,43.7,42.1,29.96,ESE,111,4.0,7.0,94,0.09,,,2.65,Wunderground v.1.15,2013-04-17 21:57:00,
2013-04-17 16:58:00,43.7,42.1,29.96,ESE,113,4.0,7.0,94,0.09,,,2.65,Wunderground v.1.15,2013-04-17 21:58:00,
2013-04-17 16:59:00,43.7,42.1,29.96,East,80,4.0,7.0,94,0.09,,,2.65,Wunderground v.1.15,2013-04-17 21:59:00,
2013-04-17 17:00:00,43.6,42.0,29.97,East,90,5.0,5.0,94,0.09,,,2.65,Wunderground v.1.15,2013-04-17 22:00:00,
2013-04-17 17:01:00,43.7,42.1,29.97,East,90,5.0,5.0,94,0.09,,,2.65,Wunderground v.1.15,2013-04-17 22:01:00,
2013-04-17 17:03:00,43.7,42.1,29.97,ESE,118,4.0,5.0,94,0.07,,,2.65,Wunderground v.1.15,2013-04-17 22:03:00,
2013-04-17 17:05:00,43.7,42.1,29.97,East,100,4.0,5.0,94,0.06,,,2.66,Wunderground v.1.15,2013-04-17 22:05:00,
2013-04-17 17:08:00,43.7,42.1,29.97,East,90,5.0,6.0,94,0.06,,,2.66,Wunderground v.1.15,2013-04-17 22:08:00,
2013-04-17 17:10:00,43.7,42.1,29.97,ESE,108,4.0,4.0,94,0.11,,,2.67,Wunderground v.1.15,2013-04-17 22:10:00,
2013-04-17 17:13:00,43.7,42.1,29.96,East,86,4.0,8.0,94,0.11,,,2.67,Wunderground v.1.15,2013-04-17 22:13:00,
2013-04-17 17:16:00,43.7,42.1,29.96,East,92,4.0,8.0,94,0.09,,,2.68,Wunderground v.1.15,2013-04-17 22:16:00,
2013-04-17 17:17:00,43.7,42.1,29.96,ESE,105,4.0,8.0,94,0.09,,,2.68,Wunderground v.1.15,2013-04-17 22:17:00,
2013-04-17 17:18:00,43.7,42.1,29.95,East,81,4.0,10.0,94,0.09,,,2.68,Wunderground v.1.15,2013-04-17 22:18:00,
2013-04-17 17:23:00,43.8,42.5,29.93,East,79,4.0,8.0,95,0.08,,,2.68,Wunderground v.1.15,2013-04-17 22:23:00,
2013-04-17 17:24:00,43.8,42.5,29.93,ENE,78,4.0,8.0,95,0.08,,,2.69,Wunderground v.1.15,2013-04-17 22:24:00,
2013-04-17 17:25:00,43.8,42.5,29.93,ENE,59,4.0,8.0,95,0.08,,,2.69,Wunderground v.1.15,2013-04-17 22:25:00,
2013-04-17 17:31:00,43.8,42.5,29.92,ESE,107,5.0,9.0,95,0.07,,,2.69,Wunderground v.1.15,2013-04-17 22:31:00,
2013-04-17 17:32:00,43.8,42.5,29.92,ENE,67,6.0,9.0,95,0.07,,,2.69,Wunderground v.1.15,2013-04-17 22:32:00,
2013-04-17 17:33:00,43.8,42.5,29.92,ESE,116,6.0,9.0,95,0.06,,,2.69,Wunderground v.1.15,2013-04-17 22:33:00,
2013-04-17 17:34:00,43.8,42.5,29.92,East,92,6.0,9.0,95,0.05,,,2.69,Wunderground v.1.15,2013-04-17 22:34:00,
2013-04-17 17:36:00,43.8,42.5,29.91,East,85,6.0,9.0,95,0.05,,,2.69,Wunderground v.1.15,2013-04-17 22:36:00,
2013-04-17 17:38:00,43.8,42.5,29.91,ESE,103,6.0,9.0,95,0.04,,,2.69,Wunderground v.1.15,2013-04-17 22:38:00,
2013-04-17 17:39:00,43.8,42.5,29.91,ENE,74,6.0,9.0,95,0.04,,,2.69,Wunderground v.1.15,2013-04-17 22:39:00,
2013-04-17 17:41:00,43.8,42.5,29.91,East,80,6.0,10.0,95,0.00,,,2.69,Wunderground v.1.15,2013-04-17 22:41:00,
2013-04-17 17:42:00,43.8,42.5,29.91,East,80,6.0,10.0,95,0.00,,,2.69,Wunderground v.1.15,2013-04-17 22:42:00,
2013-04-17 17:44:00,43.9,42.6,29.92,ESE,111,6.0,10.0,95,0.00,,,2.69,Wunderground v.1.15,2013-04-17 22:44:00,
2013-04-17 17:45:00,43.9,42.6,29.92,East,82,6.0,10.0,95,0.00,,,2.69,Wunderground v.1.15,2013-04-17 22:45:00,
2013-04-17 17:46:00,43.9,42.6,29.92,ESE,110,6.0,10.0,95,0.00,,,2.69,Wunderground v.1.15,2013-04-17 22:46:00,
2013-04-17 17:47:00,43.9,42.6,29.92,NE,56,5.0,10.0,95,0.00,,,2.69,Wunderground v.1.15,2013-04-17 22:47:00,
2013-04-17 17:52:00,44.0,42.7,29.92,East,89,6.0,12.0,95,0.00,,,2.69,Wunderground v.1.15,2013-04-17 22:52:00,
2013-04-17 17:53:00,44.0,42.7,29.92,East,86,6.0,17.0,95,0.00,,,2.69,Wunderground v.1.15,2013-04-17 22:53:00,
2013-04-17 17:54:00,44.0,42.7,29.92,East,96,6.0,17.0,95,0.00,,,2.69,Wunderground v.1.15,2013-04-17 22:54:00,
2013-04-17 17:58:00,44.1,42.8,29.91,ENE,76,6.0,17.0,95,0.00,,,2.69,Wunderground v.1.15,2013-04-17 22:58:00,
2013-04-17 18:00:00,44.1,42.8,29.91,East,98,6.0,10.0,95,0.00,,,2.69,Wunderground v.1.15,2013-04-17 23:00:00,
2013-04-17 18:01:00,44.1,42.8,29.91,ESE,113,6.0,10.0,95,0.00,,,2.69,Wunderground v.1.15,2013-04-17 23:01:00,
2013-04-17 18:04:00,44.2,42.9,29.92,ESE,109,7.0,10.0,95,0.00,,,2.69,Wunderground v.1.15,2013-04-17 23:04:00,
2013-04-17 18:07:00,44.2,42.9,29.93,East,92,7.0,10.0,95,0.00,,,2.69,Wunderground v.1.15,2013-04-17 23:07:00,
2013-04-17 18:09:00,44.2,42.9,29.92,East,82,7.0,10.0,95,0.00,,,2.69,Wunderground v.1.15,2013-04-17 23:09:00,
2013-04-17 18:11:00,44.3,43.0,29.91,ENE,70,7.0,11.0,95,0.00,,,2.69,Wunderground v.1.15,2013-04-17 23:11:00,
2013-04-17 18:12:00,44.3,43.0,29.91,ESE,102,8.0,11.0,95,0.00,,,2.69,Wunderground v.1.15,2013-04-17 23:12:00,
2013-04-17 18:13:00,44.3,43.0,29.91,East,90,7.0,11.0,95,0.00,,,2.69,Wunderground v.1.15,2013-04-17 23:13:00,
2013-04-17 18:15:00,44.3,43.0,29.91,East,90,7.0,11.0,95,0.00,,,2.69,Wunderground v.1.15,2013-04-17 23:15:00,
2013-04-17 18:16:00,44.3,43.0,29.90,East,83,7.0,11.0,95,0.00,,,2.69,Wunderground v.1.15,2013-04-17 23:16:00,
2013-04-17 18:17:00,44.3,43.0,29.90,East,98,7.0,11.0,95,0.00,,,2.70,Wunderground v.1.15,2013-04-17 23:17:00,
2013-04-17 18:20:00,44.3,43.0,29.90,ESE,117,6.0,7.0,95,0.00,,,2.70,Wunderground v.1.15,2013-04-17 23:20:00,
2013-04-17 18:22:00,44.4,43.1,29.90,ENE,77,6.0,7.0,95,0.00,,,2.70,Wunderground v.1.15,2013-04-17 23:22:00,
2013-04-17 18:23:00,44.3,43.0,29.90,East,100,6.0,7.0,95,0.00,,,2.70,Wunderground v.1.15,2013-04-17 23:23:00,
2013-04-17 18:24:00,44.4,43.1,29.90,ESE,123,6.0,7.0,95,0.00,,,2.70,Wunderground v.1.15,2013-04-17 23:24:00,
2013-04-17 18:25:00,44.4,43.1,29.90,East,88,6.0,7.0,95,0.00,,,2.70,Wunderground v.1.15,2013-04-17 23:25:00,
2013-04-17 18:28:00,44.4,43.1,29.90,NE,51,5.0,7.0,95,0.00,,,2.70,Wunderground v.1.15,2013-04-17 23:28:00,
2013-04-17 18:30:00,44.4,43.1,29.90,ESE,103,5.0,5.0,95,0.05,,,2.71,Wunderground v.1.15,2013-04-17 23:30:00,
2013-04-17 18:33:00,44.5,43.2,29.91,East,92,4.0,5.0,95,0.05,,,2.71,Wunderground v.1.15,2013-04-17 23:33:00,
2013-04-17 18:34:00,44.5,43.2,29.91,East,88,4.0,5.0,95,0.05,,,2.71,Wunderground v.1.15,2013-04-17 23:34:00,
2013-04-17 18:36:00,44.6,43.3,29.92,East,96,4.0,5.0,95,0.05,,,2.71,Wunderground v.1.15,2013-04-17 23:36:00,
2013-04-17 18:38:00,44.6,43.3,29.92,ESE,105,4.0,5.0,95,0.05,,,2.71,Wunderground v.1.15,2013-04-17 23:38:00,
2013-04-17 18:39:00,44.6,43.3,29.92,ESE,105,4.0,5.0,95,0.06,,,2.72,Wunderground v.1.15,2013-04-17 23:39:00,
2013-04-17 18:42:00,44.7,43.4,29.93,SE,129,4.0,6.0,95,0.06,,,2.72,Wunderground v.1.15,2013-04-17 23:42:00,
2013-04-17 18:43:00,44.7,43.4,29.93,East,86,4.0,6.0,95,0.06,,,2.72,Wunderground v.1.15,2013-04-17 23:43:00,
2013-04-17 18:45:00,44.8,43.5,29.93,ESE,119,4.0,6.0,95,0.06,,,2.72,Wunderground v.1.15,2013-04-17 23:45:00,
2013-04-17 18:49:00,44.9,43.6,29.93,SSE,166,5.0,6.0,95,0.07,,,2.73,Wunderground v.1.15,2013-04-17 23:49:00,
2013-04-17 18:51:00,44.9,43.6,29.93,SE,126,5.0,9.0,95,0.18,,,2.74,Wunderground v.1.15,2013-04-17 23:51:00,
2013-04-17 18:52:00,44.9,43.6,29.93,SE,141,5.0,11.0,95,0.18,,,2.74,Wunderground v.1.15,2013-04-17 23:52:00,
2013-04-17 18:55:00,44.9,43.6,29.93,SE,138,6.0,11.0,95,0.27,,,2.76,Wunderground v.1.15,2013-04-17 23:55:00,
2013-04-17 18:56:00,44.9,43.6,29.93,East,94,6.0,11.0,95,0.27,,,2.76,Wunderground v.1.15,2013-04-17 23:56:00,
2013-04-17 18:58:00,44.9,43.6,29.92,SE,126,5.0,11.0,95,0.21,,,2.76,Wunderground v.1.15,2013-04-17 23:58:00,
2013-04-17 19:00:00,44.9,43.6,29.92,SSE,159,5.0,7.0,95,0.14,,,2.77,Wunderground v.1.15,2013-04-18 00:00:00,
2013-04-17 19:01:00,44.9,43.6,29.92,SE,125,5.0,7.0,95,0.14,,,2.77,Wunderground v.1.15,2013-04-18 00:01:00,
2013-04-17 19:04:00,44.9,43.6,29.91,SE,126,4.0,7.0,95,0.12,,,2.77,Wunderground v.1.15,2013-04-18 00:04:00,
2013-04-17 19:06:00,44.9,43.6,29.91,ESE,112,4.0,7.0,95,0.09,,,2.77,Wunderground v.1.15,2013-04-18 00:06:00,
2013-04-17 19:08:00,44.9,43.6,29.92,South,170,4.0,7.0,95,0.07,,,2.77,Wunderground v.1.15,2013-04-18 00:08:00,
2013-04-17 19:10:00,44.9,43.6,29.92,SSE,165,5.0,5.0,95,0.05,,,2.77,Wunderground v.1.15,2013-04-18 00:10:00,
2013-04-17 19:12:00,44.9,43.6,29.91,SE,135,4.0,9.0,95,0.05,,,2.78,Wunderground v.1.15,2013-04-18 00:12:00,
2013-04-17 19:13:00,44.9,43.6,29.90,ESE,108,4.0,9.0,95,0.05,,,2.78,Wunderground v.1.15,2013-04-18 00:13:00,
2013-04-17 19:14:00,44.9,43.6,29.90,ESE,113,4.0,9.0,95,0.05,,,2.78,Wunderground v.1.15,2013-04-18 00:14:00,
2013-04-17 19:17:00,44.9,43.6,29.91,South,170,4.0,9.0,95,0.05,,,2.78,Wunderground v.1.15,2013-04-18 00:17:00,
2013-04-17 19:18:00,44.9,43.6,29.91,South,169,4.0,9.0,95,0.05,,,2.78,Wunderground v.1.15,2013-04-18 00:18:00,
2013-04-17 19:19:00,44.9,43.6,29.91,SE,143,4.0,9.0,95,0.05,,,2.78,Wunderground v.1.15,2013-04-18 00:19:00,
2013-04-17 19:20:00,44.9,43.6,29.91,ESE,106,4.0,5.0,95,0.05,,,2.78,Wunderground v.1.15,2013-04-18 00:20:00,
2013-04-17 19:21:00,44.9,43.6,29.91,ESE,111,4.0,5.0,95,0.05,,,2.78,Wunderground v.1.15,2013-04-18 00:21:00,
2013-04-17 19:24:00,44.9,43.6,29.91,ESE,117,4.0,5.0,95,0.05,,,2.78,Wunderground v.1.15,2013-04-18 00:24:00,
2013-04-17 19:25:00,45.0,43.7,29.91,SE,144,4.0,5.0,95,0.04,,,2.78,Wunderground v.1.15,2013-04-18 00:25:00,
2013-04-17 19:29:00,45.0,43.7,29.89,ESE,115,3.0,5.0,95,0.04,,,2.79,Wunderground v.1.15,2013-04-18 00:29:00,
2013-04-17 19:30:00,45.0,43.7,29.89,East,100,3.0,3.0,95,0.04,,,2.79,Wunderground v.1.15,2013-04-18 00:30:00,
2013-04-17 19:31:00,45.0,43.7,29.88,East,100,3.0,3.0,95,0.04,,,2.79,Wunderground v.1.15,2013-04-18 00:31:00,
2013-04-17 19:33:00,45.1,43.8,29.88,East,92,3.0,4.0,95,0.04,,,2.79,Wunderground v.1.15,2013-04-18 00:33:00,
2013-04-17 19:34:00,45.1,43.8,29.87,East,84,3.0,4.0,95,0.08,,,2.80,Wunderground v.1.15,2013-04-18 00:34:00,
2013-04-17 19:38:00,45.1,43.8,29.87,East,88,3.0,4.0,95,0.08,,,2.80,Wunderground v.1.15,2013-04-18 00:38:00,
2013-04-17 19:39:00,45.1,43.8,29.87,East,88,3.0,4.0,95,0.08,,,2.80,Wunderground v.1.15,2013-04-18 00:39:00,
2013-04-17 19:41:00,45.1,43.8,29.86,East,101,3.0,4.0,95,0.08,,,2.80,Wunderground v.1.15,2013-04-18 00:41:00,
2013-04-17 19:43:00,45.1,43.8,29.85,East,90,3.0,4.0,95,0.06,,,2.80,Wunderground v.1.15,2013-04-18 00:43:00,
2013-04-17 19:45:00,45.1,43.8,29.84,ENE,63,3.0,8.0,95,0.05,,,2.81,Wunderground v.1.15,2013-04-18 00:45:00,
2013-04-17 19:48:00,45.1,43.8,29.84,NE,36,4.0,8.0,95,0.05,,,2.81,Wunderground v.1.15,2013-04-18 00:48:00,
2013-04-17 19:49:00,45.1,43.8,29.85,NE,36,4.0,8.0,95,0.05,,,2.81,Wunderground v.1.15,2013-04-18 00:49:00,
2013-04-17 19:50:00,45.1,43.8,29.85,ENE,67,4.0,4.0,95,0.05,,,2.81,Wunderground v.1.15,2013-04-18 00:50:00,
2013-04-17 19:51:00,45.1,43.8,29.85,ENE,67,4.0,4.0,95,0.05,,,2.81,Wunderground v.1.15,2013-04-18 00:51:00,
2013-04-17 19:54:00,45.1,43.8,29.87,ENE,71,4.0,4.0,95,0.05,,,2.81,Wunderground v.1.15,2013-04-18 00:54:00,
2013-04-17 19:56:00,45.1,43.8,29.87,East,90,3.0,4.0,95,0.05,,,2.81,Wunderground v.1.15,2013-04-18 00:56:00,
2013-04-17 19:59:00,45.1,43.8,29.87,East,97,3.0,4.0,95,0.04,,,2.81,Wunderground v.1.15,2013-04-18 00:59:00,
2013-04-17 20:01:00,45.2,43.9,29.87,East,93,3.0,4.0,95,0.04,,,2.81,Wunderground v.1.15,2013-04-18 01:01:00,
2013-04-17 20:02:00,45.2,43.9,29.87,East,85,3.0,6.0,95,0.00,,,2.81,Wunderground v.1.15,2013-04-18 01:02:00,
2013-04-17 20:05:00,45.3,44.0,29.87,ENE,75,3.0,6.0,95,0.00,,,2.81,Wunderground v.1.15,2013-04-18 01:05:00,
2013-04-17 20:06:00,45.3,44.0,29.87,ENE,67,4.0,6.0,95,0.00,,,2.81,Wunderground v.1.15,2013-04-18 01:06:00,
2013-04-17 20:08:00,45.3,44.0,29.87,ENE,67,3.0,6.0,95,0.00,,,2.81,Wunderground v.1.15,2013-04-18 01:08:00,
2013-04-17 20:10:00,45.3,44.0,29.87,ENE,67,3.0,3.0,95,0.00,,,2.81,Wunderground v.1.15,2013-04-18 01:10:00,
2013-04-17 20:13:00,45.4,44.1,29.87,ENE,76,3.0,5.0,95,0.00,,,2.81,Wunderground v.1.15,2013-04-18 01:13:00,
2013-04-17 20:14:00,45.4,44.1,29.87,NE,46,3.0,5.0,95,0.00,,,2.81,Wunderground v.1.15,2013-04-18 01:14:00,
2013-04-17 20:15:00,45.4,44.1,29.87,NE,51,3.0,5.0,95,0.00,,,2.81,Wunderground v.1.15,2013-04-18 01:15:00,
2013-04-17 20:16:00,45.4,44.1,29.87,NE,55,3.0,5.0,95,0.00,,,2.81,Wunderground v.1.15,2013-04-18 01:16:00,
2013-04-17 20:20:00,45.4,44.1,29.87,NE,42,3.0,3.0,95,0.00,,,2.82,Wunderground v.1.15,2013-04-18 01:20:00,
2013-04-17 20:24:00,45.4,44.1,29.87,NE,51,3.0,4.0,95,0.00,,,2.82,Wunderground v.1.15,2013-04-18 01:24:00,
2013-04-17 20:25:00,45.4,44.1,29.87,ENE,78,3.0,4.0,95,0.08,,,2.83,Wunderground v.1.15,2013-04-18 01:25:00,
2013-04-17 20:28:00,45.4,44.1,29.88,ENE,76,3.0,4.0,95,0.08,,,2.83,Wunderground v.1.15,2013-04-18 01:28:00,
2013-04-17 20:31:00,45.4,44.1,29.88,East,84,3.0,3.0,95,0.08,,,2.83,Wunderground v.1.15,2013-04-18 01:31:00,
2013-04-17 20:32:00,45.4,44.1,29.88,East,85,3.0,4.0,95,0.08,,,2.84,Wunderground v.1.15,2013-04-18 01:32:00,
2013-04-17 20:34:00,45.4,44.1,29.89,East,91,3.0,4.0,95,0.08,,,2.84,Wunderground v.1.15,2013-04-18 01:34:00,
2013-04-17 20:37:00,45.4,44.1,29.89,ESE,107,2.0,4.0,95,0.08,,,2.84,Wunderground v.1.15,2013-04-18 01:37:00,
2013-04-17 20:38:00,45.4,44.1,29.89,ESE,107,2.0,4.0,95,0.10,,,2.85,Wunderground v.1.15,2013-04-18 01:38:00,
2013-04-17 20:39:00,45.4,44.1,29.89,ESE,106,2.0,4.0,95,0.10,,,2.85,Wunderground v.1.15,2013-04-18 01:39:00,
2013-04-17 20:41:00,45.4,44.1,29.89,ESE,105,2.0,3.0,95,0.10,,,2.85,Wunderground v.1.15,2013-04-18 01:41:00,
2013-04-17 20:45:00,45.4,44.1,29.88,East,98,3.0,6.0,95,0.10,,,2.86,Wunderground v.1.15,2013-04-18 01:45:00,
2013-04-17 20:46:00,45.4,44.1,29.86,East,97,3.0,6.0,95,0.10,,,2.86,Wunderground v.1.15,2013-04-18 01:46:00,
2013-04-17 20:47:00,45.4,44.1,29.85,East,91,4.0,6.0,95,0.10,,,2.86,Wunderground v.1.15,2013-04-18 01:47:00,
2013-04-17 20:51:00,45.3,44.0,29.83,East,96,5.0,8.0,95,0.17,,,2.87,Wunderground v.1.15,2013-04-18 01:51:00,
2013-04-17 20:52:00,45.3,44.0,29.83,ESE,118,5.0,8.0,95,0.13,,,2.87,Wunderground v.1.15,2013-04-18 01:52:00,
2013-04-17 20:53:00,45.3,44.0,29.83,ESE,122,6.0,8.0,95,0.12,,,2.88,Wunderground v.1.15,2013-04-18 01:53:00,
2013-04-17 20:54:00,45.3,44.0,29.82,East,91,6.0,11.0,95,0.12,,,2.88,Wunderground v.1.15,2013-04-18 01:54:00,
2013-04-17 20:56:00,45.3,44.0,29.82,ENE,67,6.0,11.0,95,0.12,,,2.88,Wunderground v.1.15,2013-04-18 01:56:00,
2013-04-17 20:58:00,45.3,44.0,29.82,ENE,65,6.0,11.0,95,0.11,,,2.88,Wunderground v.1.15,2013-04-18 01:58:00,
2013-04-17 20:59:00,45.3,44.0,29.83,ESE,112,6.0,11.0,95,0.09,,,2.88,Wunderground v.1.15,2013-04-18 01:59:00,
2013-04-17 21:00:00,45.3,44.0,29.83,NE,56,6.0,6.0,95,0.09,,,2.89,Wunderground v.1.15,2013-04-18 02:00:00,
2013-04-17 21:02:00,45.3,44.0,29.84,East,89,6.0,10.0,95,0.09,,,2.89,Wunderground v.1.15,2013-04-18 02:02:00,
2013-04-17 21:03:00,45.3,44.0,29.83,ESE,111,6.0,10.0,95,0.09,,,2.89,Wunderground v.1.15,2013-04-18 02:03:00,
2013-04-17 21:04:00,45.3,44.0,29.84,East,100,6.0,10.0,95,0.09,,,2.89,Wunderground v.1.15,2013-04-18 02:04:00,
2013-04-17 21:06:00,45.4,44.3,29.84,NE,40,5.0,10.0,96,0.09,,,2.89,Wunderground v.1.15,2013-04-18 02:06:00,
2013-04-17 21:07:00,45.4,44.3,29.84,East,88,6.0,10.0,96,0.08,,,2.89,Wunderground v.1.15,2013-04-18 02:07:00,
2013-04-17 21:09:00,45.4,44.3,29.84,East,91,5.0,10.0,96,0.06,,,2.89,Wunderground v.1.15,2013-04-18 02:09:00,
2013-04-17 21:12:00,45.5,44.4,29.85,SE,144,5.0,8.0,96,0.05,,,2.89,Wunderground v.1.15,2013-04-18 02:12:00,
2013-04-17 21:14:00,45.5,44.4,29.85,ESE,111,5.0,8.0,96,0.04,,,2.89,Wunderground v.1.15,2013-04-18 02:14:00,
2013-04-17 21:16:00,45.6,44.5,29.85,ENE,67,5.0,8.0,96,0.04,,,2.89,Wunderground v.1.15,2013-04-18 02:16:00,
2013-04-17 21:17:00,45.6,44.5,29.85,East,86,4.0,8.0,96,0.00,,,2.89,Wunderground v.1.15,2013-04-18 02:17:00,
2013-04-17 21:19:00,45.6,44.5,29.85,East,89,4.0,8.0,96,0.00,,,2.90,Wunderground v.1.15,2013-04-18 02:19:00,
2013-04-17 21:22:00,45.7,44.6,29.85,NE,51,4.0,6.0,96,0.00,,,2.90,Wunderground v.1.15,2013-04-18 02:22:00,
2013-04-17 21:24:00,45.8,44.7,29.85,ENE,73,4.0,6.0,96,0.00,,,2.90,Wunderground v.1.15,2013-04-18 02:24:00,
2013-04-17 21:27:00,45.8,44.7,29.85,SSE,147,4.0,6.0,96,0.00,,,2.90,Wunderground v.1.15,2013-04-18 02:27:00,
2013-04-17 21:28:00,45.9,44.8,29.85,East,79,4.0,6.0,96,0.00,,,2.90,Wunderground v.1.15,2013-04-18 02:28:00,
2013-04-17 21:29:00,45.9,44.8,29.84,East,94,4.0,6.0,96,0.00,,,2.90,Wunderground v.1.15,2013-04-18 02:29:00,
2013-04-17 21:33:00,45.9,44.8,29.84,ENE,73,3.0,5.0,96,0.05,,,2.91,Wunderground v.1.15,2013-04-18 02:33:00,
2013-04-17 21:34:00,45.9,44.8,29.84,East,101,3.0,5.0,96,0.05,,,2.91,Wunderground v.1.15,2013-04-18 02:34:00,
2013-04-17 21:36:00,46.0,44.9,29.85,ESE,105,3.0,6.0,96,0.05,,,2.91,Wunderground v.1.15,2013-04-18 02:36:00,
2013-04-17 21:37:00,46.0,44.9,29.85,ESE,105,3.0,6.0,96,0.05,,,2.91,Wunderground v.1.15,2013-04-18 02:37:00,
2013-04-17 21:39:00,46.0,44.9,29.85,ESE,105,3.0,6.0,96,0.07,,,2.92,Wunderground v.1.15,2013-04-18 02:39:00,
2013-04-17 21:40:00,46.1,45.0,29.84,ESE,119,3.0,4.0,96,0.07,,,2.92,Wunderground v.1.15,2013-04-18 02:40:00,
2013-04-17 21:44:00,46.2,45.1,29.83,East,89,4.0,6.0,96,0.07,,,2.92,Wunderground v.1.15,2013-04-18 02:44:00,
2013-04-17 21:45:00,46.2,45.1,29.83,ENE,74,4.0,6.0,96,0.09,,,2.92,Wunderground v.1.15,2013-04-18 02:45:00,
2013-04-17 21:48:00,46.2,45.1,29.83,ENE,73,4.0,6.0,96,0.09,,,2.93,Wunderground v.1.15,2013-04-18 02:48:00,
2013-04-17 21:51:00,46.3,45.2,29.82,East,95,5.0,5.0,96,0.09,,,2.93,Wunderground v.1.15,2013-04-18 02:51:00,
2013-04-17 21:53:00,46.3,45.2,29.82,SE,124,5.0,6.0,96,0.10,,,2.94,Wunderground v.1.15,2013-04-18 02:53:00,
2013-04-17 21:54:00,46.3,45.2,29.82,SE,138,5.0,6.0,96,0.10,,,2.94,Wunderground v.1.15,2013-04-18 02:54:00,
2013-04-17 21:55:00,46.4,45.3,29.82,SE,136,5.0,6.0,96,0.10,,,2.94,Wunderground v.1.15,2013-04-18 02:55:00,
2013-04-17 21:58:00,46.4,45.3,29.82,East,93,4.0,6.0,96,0.15,,,2.95,Wunderground v.1.15,2013-04-18 02:58:00,
2013-04-17 22:01:00,46.5,45.4,29.82,ESE,110,4.0,4.0,96,0.12,,,2.95,Wunderground v.1.15,2013-04-18 03:01:00,
2013-04-17 22:02:00,46.6,45.5,29.82,ESE,120,4.0,4.0,96,0.10,,,2.96,Wunderground v.1.15,2013-04-18 03:02:00,
2013-04-17 22:04:00,46.6,45.5,29.82,East,101,4.0,5.0,96,0.10,,,2.96,Wunderground v.1.15,2013-04-18 03:04:00,
2013-04-17 22:06:00,46.6,45.5,29.82,ENE,59,4.0,5.0,96,0.10,,,2.96,Wunderground v.1.15,2013-04-18 03:06:00,
2013-04-17 22:11:00,46.7,45.6,29.83,ESE,117,3.0,4.0,96,0.09,,,2.97,Wunderground v.1.15,2013-04-18 03:11:00,
2013-04-17 22:13:00,46.7,45.6,29.82,East,92,4.0,4.0,96,0.09,,,2.97,Wunderground v.1.15,2013-04-18 03:13:00,
2013-04-17 22:14:00,46.7,45.6,29.82,East,92,3.0,4.0,96,0.09,,,2.97,Wunderground v.1.15,2013-04-18 03:14:00,
2013-04-17 22:15:00,46.7,45.6,29.82,East,87,3.0,4.0,96,0.09,,,2.97,Wunderground v.1.15,2013-04-18 03:15:00,
2013-04-17 22:18:00,46.7,45.6,29.82,ENE,68,2.0,4.0,96,0.07,,,2.98,Wunderground v.1.15,2013-04-18 03:18:00,
2013-04-17 22:19:00,46.7,45.6,29.82,East,101,3.0,4.0,96,0.07,,,2.98,Wunderground v.1.15,2013-04-18 03:19:00,
2013-04-17 22:22:00,46.8,45.7,29.82,ENE,69,2.0,3.0,96,0.13,,,2.99,Wunderground v.1.15,2013-04-18 03:22:00,
2013-04-17 22:24:00,46.8,45.7,29.81,ENE,61,3.0,3.0,96,0.13,,,2.99,Wunderground v.1.15,2013-04-18 03:24:00,
2013-04-17 22:27:00,46.8,45.7,29.81,East,99,3.0,4.0,96,0.10,,,3.00,Wunderground v.1.15,2013-04-18 03:27:00,
2013-04-17 22:28:00,46.8,45.7,29.81,East,91,3.0,4.0,96,0.10,,,3.00,Wunderground v.1.15,2013-04-18 03:28:00,
2013-04-17 22:29:00,46.9,45.8,29.81,East,88,3.0,4.0,96,0.10,,,3.00,Wunderground v.1.15,2013-04-18 03:29:00,
2013-04-17 22:33:00,46.9,45.8,29.81,East,97,3.0,3.0,96,0.19,,,3.01,Wunderground v.1.15,2013-04-18 03:33:00,
2013-04-17 22:34:00,46.9,45.8,29.81,ESE,103,3.0,5.0,96,0.17,,,3.02,Wunderground v.1.15,2013-04-18 03:34:00,
2013-04-17 22:37:00,47.0,45.9,29.81,East,101,2.0,5.0,96,0.17,,,3.02,Wunderground v.1.15,2013-04-18 03:37:00,
2013-04-17 22:38:00,47.0,45.9,29.80,ESE,102,2.0,5.0,96,0.19,,,3.03,Wunderground v.1.15,2013-04-18 03:38:00,
2013-04-17 22:39:00,47.0,45.9,29.80,ESE,102,2.0,5.0,96,0.19,,,3.03,Wunderground v.1.15,2013-04-18 03:39:00,
2013-04-17 22:40:00,47.1,46.0,29.81,East,101,2.0,2.0,96,0.16,,,3.03,Wunderground v.1.15,2013-04-18 03:40:00,
2013-04-17 22:42:00,47.1,46.0,29.80,East,97,2.0,5.0,96,0.12,,,3.03,Wunderground v.1.15,2013-04-18 03:42:00,
2013-04-17 22:45:00,47.2,46.1,29.80,East,96,2.0,5.0,96,0.11,,,3.04,Wunderground v.1.15,2013-04-18 03:45:00,
2013-04-17 22:46:00,47.2,46.1,29.80,East,96,2.0,5.0,96,0.11,,,3.04,Wunderground v.1.15,2013-04-18 03:46:00,
2013-04-17 22:47:00,47.2,46.1,29.80,ESE,123,2.0,9.0,96,0.11,,,3.04,Wunderground v.1.15,2013-04-18 03:47:00,
2013-04-17 22:48:00,47.3,46.2,29.80,East,94,3.0,9.0,96,0.11,,,3.04,Wunderground v.1.15,2013-04-18 03:48:00,
2013-04-17 22:52:00,47.4,46.3,29.79,East,98,3.0,4.0,96,0.11,,,3.05,Wunderground v.1.15,2013-04-18 03:52:00,
2013-04-17 22:53:00,47.5,46.4,29.79,SE,132,3.0,6.0,96,0.11,,,3.05,Wunderground v.1.15,2013-04-18 03:53:00,
2013-04-17 22:54:00,47.5,46.4,29.79,ESE,119,4.0,6.0,96,0.10,,,3.05,Wunderground v.1.15,2013-04-18 03:54:00,
2013-04-17 22:55:00,47.6,46.5,29.79,ESE,109,4.0,6.0,96,0.08,,,3.06,Wunderground v.1.15,2013-04-18 03:55:00,
2013-04-17 22:57:00,47.6,46.5,29.78,ESE,110,4.0,6.0,96,0.08,,,3.06,Wunderground v.1.15,2013-04-18 03:57:00,
2013-04-17 22:59:00,47.7,46.6,29.79,East,93,4.0,6.0,96,0.08,,,3.06,Wunderground v.1.15,2013-04-18 03:59:00,
2013-04-17 23:01:00,47.7,46.6,29.78,SE,125,4.0,4.0,96,0.12,,,3.07,Wunderground v.1.15,2013-04-18 04:01:00,
2013-04-17 23:02:00,47.8,46.7,29.78,East,83,4.0,5.0,96,0.12,,,3.07,Wunderground v.1.15,2013-04-18 04:02:00,
2013-04-17 23:03:00,47.8,46.7,29.78,East,98,5.0,5.0,96,0.12,,,3.07,Wunderground v.1.15,2013-04-18 04:03:00,
2013-04-17 23:05:00,47.8,46.7,29.78,ESE,109,4.0,5.0,96,0.11,,,3.07,Wunderground v.1.15,2013-04-18 04:05:00,
2013-04-17 23:08:00,47.8,46.7,29.78,ESE,113,5.0,5.0,96,0.10,,,3.08,Wunderground v.1.15,2013-04-18 04:08:00,
2013-04-17 23:09:00,47.8,46.7,29.78,ESE,113,4.0,5.0,96,0.10,,,3.08,Wunderground v.1.15,2013-04-18 04:09:00,
2013-04-17 23:11:00,47.8,46.7,29.77,ESE,117,5.0,5.0,96,0.16,,,3.09,Wunderground v.1.15,2013-04-18 04:11:00,
2013-04-17 23:13:00,47.8,46.7,29.77,ESE,118,4.0,6.0,96,0.16,,,3.09,Wunderground v.1.15,2013-04-18 04:13:00,
2013-04-17 23:14:00,47.9,46.8,29.76,East,101,4.0,9.0,96,0.14,,,3.09,Wunderground v.1.15,2013-04-18 04:14:00,
2013-04-17 23:15:00,47.9,46.8,29.77,ESE,121,5.0,9.0,96,0.11,,,3.09,Wunderground v.1.15,2013-04-18 04:15:00,
2013-04-17 23:16:00,47.9,46.8,29.76,ESE,111,5.0,9.0,96,0.10,,,3.09,Wunderground v.1.15,2013-04-18 04:16:00,
2013-04-17 23:19:00,47.9,46.8,29.76,ESE,110,5.0,9.0,96,0.08,,,3.10,Wunderground v.1.15,2013-04-18 04:19:00,
2013-04-17 23:20:00,47.9,46.8,29.75,NE,55,5.0,5.0,96,0.08,,,3.10,Wunderground v.1.15,2013-04-18 04:20:00,
2013-04-17 23:22:00,47.9,46.8,29.75,ESE,120,5.0,7.0,96,0.08,,,3.10,Wunderground v.1.15,2013-04-18 04:22:00,
2013-04-17 23:25:00,48.1,47.0,29.74,East,101,6.0,8.0,96,0.07,,,3.10,Wunderground v.1.15,2013-04-18 04:25:00,
2013-04-17 23:27:00,48.1,47.0,29.74,ESE,120,6.0,8.0,96,0.07,,,3.11,Wunderground v.1.15,2013-04-18 04:27:00,
2013-04-17 23:28:00,48.2,47.1,29.75,SE,125,6.0,8.0,96,0.07,,,3.11,Wunderground v.1.15,2013-04-18 04:28:00,
2013-04-17 23:29:00,48.2,47.1,29.75,ESE,107,6.0,11.0,96,0.07,,,3.11,Wunderground v.1.15,2013-04-18 04:29:00,
2013-04-17 23:32:00,48.4,47.3,29.75,ESE,117,6.0,10.0,96,0.07,,,3.11,Wunderground v.1.15,2013-04-18 04:32:00,
2013-04-17 23:33:00,48.5,47.4,29.75,SSE,152,6.0,10.0,96,0.07,,,3.11,Wunderground v.1.15,2013-04-18 04:33:00,
2013-04-17 23:34:00,48.5,47.4,29.75,SE,144,6.0,10.0,96,0.07,,,3.11,Wunderground v.1.15,2013-04-18 04:34:00,
2013-04-17 23:35:00,48.6,47.5,29.74,ESE,111,6.0,10.0,96,0.06,,,3.11,Wunderground v.1.15,2013-04-18 04:35:00,
2013-04-17 23:38:00,48.7,47.6,29.74,East,88,6.0,13.0,96,0.05,,,3.11,Wunderground v.1.15,2013-04-18 04:38:00,
2013-04-17 23:39:00,48.8,47.7,29.74,South,178,6.0,13.0,96,0.05,,,3.12,Wunderground v.1.15,2013-04-18 04:39:00,
2013-04-17 23:40:00,48.9,47.8,29.75,SE,126,6.0,6.0,96,0.05,,,3.12,Wunderground v.1.15,2013-04-18 04:40:00,
2013-04-17 23:42:00,49.0,47.9,29.74,ESE,115,5.0,6.0,96,0.05,,,3.12,Wunderground v.1.15,2013-04-18 04:42:00,
2013-04-17 23:43:00,49.0,47.9,29.74,East,98,5.0,6.0,96,0.05,,,3.12,Wunderground v.1.15,2013-04-18 04:43:00,
2013-04-17 23:45:00,49.2,48.1,29.74,SE,131,5.0,6.0,96,0.05,,,3.12,Wunderground v.1.15,2013-04-18 04:45:00,
2013-04-17 23:46:00,49.3,48.2,29.74,ESE,123,5.0,6.0,96,0.05,,,3.12,Wunderground v.1.15,2013-04-18 04:46:00,
2013-04-17 23:48:00,49.5,48.7,29.74,ESE,121,5.0,7.0,97,0.06,,,3.12,Wunderground v.1.15,2013-04-18 04:48:00,
2013-04-17 23:50:00,49.7,48.9,29.75,SE,145,5.0,5.0,97,0.06,,,3.13,Wunderground v.1.15,2013-04-18 04:50:00,
2013-04-17 23:54:00,50.0,48.9,29.75,SE,131,6.0,11.0,96,0.06,,,3.13,Wunderground v.1.15,2013-04-18 04:54:00,
2013-04-17 23:56:00,50.2,49.4,29.75,SSE,147,6.0,11.0,97,0.06,,,3.13,Wunderground v.1.15,2013-04-18 04:56:00,
2013-04-17 23:57:00,50.3,49.5,29.75,SE,134,6.0,11.0,97,0.06,,,3.13,Wunderground v.1.15,2013-04-18 04:57:00,
2013-04-17 23:58:00,50.4,49.6,29.75,SSE,154,6.0,11.0,97,0.06,,,3.13,Wunderground v.1.15,2013-04-18 04:58:00,